Time,TemperatureF,DewpointF,PressureIn,WindDirection,WindDirectionDegrees,WindSpeedMPH,WindSpeedGustMPH,Humidity,HourlyPrecipIn,Conditions,Clouds,dailyrainin,SoftwareType,DateUTC
2013-12-27 00:00:00,26.6,21.4,30.15,SW,225,0.0,4.9,81,0.00,,,0.08,WUHU216HW,2013-12-27 06:00:00,
2013-12-27 00:01:00,26.6,21.4,30.15,SW,225,0.0,4.9,81,0.00,,,0.00,WUHU216HW,2013-12-27 06:01:00,
2013-12-27 00:02:00,26.6,21.4,30.15,SW,225,0.0,4.9,81,0.00,,,0.00,WUHU216HW,2013-12-27 06:02:00,
2013-12-27 00:05:00,26.6,21.4,30.15,SW,225,0.0,4.0,81,0.00,,,0.00,WUHU216HW,2013-12-27 06:05:00,
2013-12-27 00:06:00,26.6,21.4,30.15,SW,225,0.0,4.0,81,0.00,,,0.00,WUHU216HW,2013-12-27 06:06:00,
2013-12-27 00:07:00,26.4,21.3,30.15,SW,225,3.5,3.5,81,0.00,,,0.00,WUHU216HW,2013-12-27 06:07:00,
2013-12-27 00:08:00,26.4,21.3,30.15,SW,225,3.5,3.5,81,0.00,,,0.00,WUHU216HW,2013-12-27 06:08:00,
2013-12-27 00:10:00,26.4,21.3,30.15,WSW,248,2.9,3.5,81,0.00,,,0.00,WUHU216HW,2013-12-27 06:10:00,
2013-12-27 00:11:00,26.4,21.3,30.15,WSW,248,2.9,3.5,81,0.00,,,0.00,WUHU216HW,2013-12-27 06:11:00,
2013-12-27 00:12:00,26.4,21.3,30.15,WSW,248,2.9,3.5,81,0.00,,,0.00,WUHU216HW,2013-12-27 06:12:00,
2013-12-27 00:13:00,26.4,21.3,30.16,WSW,248,2.9,3.5,81,0.00,,,0.00,WUHU216HW,2013-12-27 06:13:00,
2013-12-27 00:15:00,26.4,21.3,30.16,WSW,248,1.7,3.5,81,0.00,,,0.00,WUHU216HW,2013-12-27 06:15:00,
2013-12-27 00:16:00,26.4,21.3,30.16,WSW,248,1.7,3.5,81,0.00,,,0.00,WUHU216HW,2013-12-27 06:16:00,
2013-12-27 00:17:00,26.4,21.3,30.16,WSW,248,0.8,2.9,81,0.00,,,0.00,WUHU216HW,2013-12-27 06:17:00,
2013-12-27 00:18:00,26.4,21.3,30.16,WSW,248,0.8,2.9,81,0.00,,,0.00,WUHU216HW,2013-12-27 06:18:00,
2013-12-27 00:21:00,26.4,21.3,30.16,WSW,248,1.7,2.9,81,0.00,,,0.00,WUHU216HW,2013-12-27 06:21:00,
2013-12-27 00:22:00,26.2,21.1,30.16,SW,225,1.5,2.9,81,0.00,,,0.00,WUHU216HW,2013-12-27 06:22:00,
2013-12-27 00:23:00,26.2,21.1,30.16,SW,225,1.5,2.4,81,0.00,,,0.00,WUHU216HW,2013-12-27 06:23:00,
2013-12-27 00:26:00,26.2,21.1,30.16,WSW,248,1.7,1.7,81,0.00,,,0.00,WUHU216HW,2013-12-27 06:26:00,
2013-12-27 00:27:00,26.2,21.1,30.16,WSW,248,1.7,1.7,81,0.00,,,0.00,WUHU216HW,2013-12-27 06:27:00,
2013-12-27 00:28:00,26.2,21.1,30.16,WSW,248,0.0,1.7,81,0.00,,,0.00,WUHU216HW,2013-12-27 06:28:00,
2013-12-27 00:29:00,26.2,21.1,30.16,WSW,248,0.0,1.7,81,0.00,,,0.00,WUHU216HW,2013-12-27 06:29:00,
2013-12-27 00:31:00,26.0,20.9,30.16,West,270,1.1,1.7,81,0.00,,,0.00,WUHU216HW,2013-12-27 06:31:00,
2013-12-27 00:33:00,26.0,20.9,30.16,West,270,1.7,1.7,81,0.00,,,0.00,WUHU216HW,2013-12-27 06:33:00,
2013-12-27 00:34:00,26.0,20.9,30.16,West,270,1.7,1.7,81,0.00,,,0.00,WUHU216HW,2013-12-27 06:34:00,
2013-12-27 00:37:00,25.8,20.8,30.15,SW,225,4.2,4.2,81,0.00,,,0.00,WUHU216HW,2013-12-27 06:37:00,
2013-12-27 00:38:00,25.8,20.8,30.15,SW,225,4.2,4.2,81,0.00,,,0.00,WUHU216HW,2013-12-27 06:38:00,
2013-12-27 00:39:00,26.0,20.9,30.15,WSW,248,0.0,4.2,81,0.00,,,0.00,WUHU216HW,2013-12-27 06:39:00,
2013-12-27 00:40:00,26.0,20.9,30.15,WSW,248,0.0,4.2,81,0.00,,,0.00,WUHU216HW,2013-12-27 06:40:00,
2013-12-27 00:42:00,25.8,20.8,30.15,SW,225,2.0,4.2,81,0.00,,,0.00,WUHU216HW,2013-12-27 06:42:00,
2013-12-27 00:43:00,25.8,20.8,30.15,SW,225,2.0,4.2,81,0.00,,,0.00,WUHU216HW,2013-12-27 06:43:00,
2013-12-27 00:44:00,25.8,20.8,30.15,WNW,293,2.4,4.2,81,0.00,,,0.00,WUHU216HW,2013-12-27 06:44:00,
2013-12-27 00:45:00,25.8,20.8,30.15,WNW,293,2.4,4.2,81,0.00,,,0.00,WUHU216HW,2013-12-27 06:45:00,
2013-12-27 00:47:00,25.8,20.8,30.16,WNW,293,2.4,2.4,81,0.00,,,0.00,WUHU216HW,2013-12-27 06:47:00,
2013-12-27 00:48:00,25.8,20.8,30.16,WNW,293,2.4,2.4,81,0.00,,,0.00,WUHU216HW,2013-12-27 06:48:00,
2013-12-27 00:50:00,25.8,20.8,30.16,West,270,1.3,2.4,81,0.00,,,0.00,WUHU216HW,2013-12-27 06:50:00,
2013-12-27 00:53:00,25.8,20.8,30.16,WNW,293,1.3,2.4,81,0.00,,,0.00,WUHU216HW,2013-12-27 06:53:00,
2013-12-27 00:55:00,25.8,20.8,30.16,WSW,248,0.0,2.4,81,0.00,,,0.00,WUHU216HW,2013-12-27 06:55:00,
2013-12-27 00:56:00,26.0,20.9,30.16,West,270,1.5,2.4,81,0.00,,,0.00,WUHU216HW,2013-12-27 06:56:00,
2013-12-27 00:58:00,26.0,20.9,30.17,SW,225,1.5,2.4,81,0.00,,,0.00,WUHU216HW,2013-12-27 06:58:00,
2013-12-27 01:00:00,26.0,20.9,30.16,WNW,293,2.9,2.9,81,0.00,,,0.00,WUHU216HW,2013-12-27 07:00:00,
2013-12-27 01:01:00,26.2,21.1,30.17,WNW,293,2.9,2.9,81,0.00,,,0.00,WUHU216HW,2013-12-27 07:01:00,
2013-12-27 01:03:00,26.0,20.9,30.16,West,270,0.0,2.9,81,0.00,,,0.00,WUHU216HW,2013-12-27 07:03:00,
2013-12-27 01:04:00,26.0,20.9,30.17,West,270,0.0,2.9,81,0.00,,,0.00,WUHU216HW,2013-12-27 07:04:00,
2013-12-27 01:05:00,26.2,21.1,30.17,West,270,1.5,2.9,81,0.00,,,0.00,WUHU216HW,2013-12-27 07:05:00,
2013-12-27 01:06:00,26.2,21.1,30.17,West,270,1.5,2.9,81,0.00,,,0.00,WUHU216HW,2013-12-27 07:06:00,
2013-12-27 01:09:00,26.0,20.9,30.17,West,270,2.4,2.9,81,0.00,,,0.00,WUHU216HW,2013-12-27 07:09:00,
2013-12-27 01:10:00,26.0,20.9,30.17,West,270,2.4,2.9,81,0.00,,,0.00,WUHU216HW,2013-12-27 07:10:00,
2013-12-27 01:11:00,26.2,21.1,30.17,WSW,248,2.4,2.9,81,0.00,,,0.00,WUHU216HW,2013-12-27 07:11:00,
2013-12-27 01:14:00,26.2,21.1,30.17,SW,225,0.6,2.4,81,0.00,,,0.00,WUHU216HW,2013-12-27 07:14:00,
2013-12-27 01:15:00,26.2,21.1,30.17,West,270,0.0,2.4,81,0.00,,,0.00,WUHU216HW,2013-12-27 07:15:00,
2013-12-27 01:16:00,26.0,21.1,30.17,West,270,0.0,2.4,81,0.00,,,0.00,WUHU216HW,2013-12-27 07:16:00,
2013-12-27 01:19:00,26.0,20.9,30.17,West,270,0.0,2.4,81,0.00,,,0.00,WUHU216HW,2013-12-27 07:19:00,
2013-12-27 01:20:00,26.0,20.9,30.17,WSW,248,1.7,2.4,81,0.00,,,0.00,WUHU216HW,2013-12-27 07:20:00,
2013-12-27 01:21:00,26.0,20.9,30.17,WSW,248,1.7,2.4,81,0.00,,,0.00,WUHU216HW,2013-12-27 07:21:00,
2013-12-27 01:22:00,26.0,20.9,30.17,SW,225,1.3,1.7,81,0.00,,,0.00,WUHU216HW,2013-12-27 07:22:00,
2013-12-27 01:24:00,25.8,20.8,30.17,West,270,3.3,3.3,81,0.00,,,0.00,WUHU216HW,2013-12-27 07:24:00,
2013-12-27 01:25:00,25.8,20.8,30.17,West,270,0.0,3.3,81,0.00,,,0.00,WUHU216HW,2013-12-27 07:25:00,
2013-12-27 01:26:00,25.8,20.8,30.17,West,270,0.0,3.3,81,0.00,,,0.00,WUHU216HW,2013-12-27 07:26:00,
2013-12-27 01:27:00,25.8,20.8,30.17,West,270,0.0,3.3,81,0.00,,,0.00,WUHU216HW,2013-12-27 07:27:00,
2013-12-27 01:29:00,25.8,20.8,30.17,WSW,248,1.7,3.3,81,0.00,,,0.00,WUHU216HW,2013-12-27 07:29:00,
2013-12-27 01:30:00,25.8,20.8,30.17,WSW,248,1.7,3.3,81,0.00,,,0.00,WUHU216HW,2013-12-27 07:30:00,
2013-12-27 01:31:00,25.8,20.8,30.17,SW,225,0.0,3.3,81,0.00,,,0.00,WUHU216HW,2013-12-27 07:31:00,
2013-12-27 01:32:00,25.8,20.8,30.17,SW,225,0.0,3.3,81,0.00,,,0.00,WUHU216HW,2013-12-27 07:32:00,
2013-12-27 01:34:00,25.7,20.6,30.17,West,270,0.0,3.3,81,0.00,,,0.00,WUHU216HW,2013-12-27 07:34:00,
2013-12-27 01:35:00,25.7,20.6,30.17,West,270,0.0,1.7,81,0.00,,,0.00,WUHU216HW,2013-12-27 07:35:00,
2013-12-27 01:37:00,25.7,20.6,30.17,West,270,1.3,1.7,81,0.00,,,0.00,WUHU216HW,2013-12-27 07:37:00,
2013-12-27 01:39:00,25.5,20.4,30.17,WSW,248,2.2,2.2,81,0.00,,,0.00,WUHU216HW,2013-12-27 07:39:00,
2013-12-27 01:40:00,25.5,20.4,30.17,WSW,248,2.2,2.2,81,0.00,,,0.00,WUHU216HW,2013-12-27 07:40:00,
2013-12-27 01:41:00,25.5,20.4,30.17,WSW,248,1.1,2.2,81,0.00,,,0.00,WUHU216HW,2013-12-27 07:41:00,
2013-12-27 01:42:00,25.5,20.4,30.17,WSW,248,1.1,2.2,81,0.00,,,0.00,WUHU216HW,2013-12-27 07:42:00,
2013-12-27 01:44:00,25.5,20.4,30.17,SW,225,2.2,2.2,81,0.00,,,0.00,WUHU216HW,2013-12-27 07:44:00,
2013-12-27 01:45:00,25.5,20.4,30.17,SW,225,2.2,2.2,81,0.00,,,0.00,WUHU216HW,2013-12-27 07:45:00,
2013-12-27 01:46:00,25.5,20.4,30.17,WSW,248,2.0,2.2,81,0.00,,,0.00,WUHU216HW,2013-12-27 07:46:00,
2013-12-27 01:47:00,25.5,20.4,30.17,WSW,248,2.0,2.2,81,0.00,,,0.00,WUHU216HW,2013-12-27 07:47:00,
2013-12-27 01:49:00,25.5,20.4,30.17,West,270,0.0,2.2,81,0.00,,,0.00,WUHU216HW,2013-12-27 07:49:00,
2013-12-27 01:50:00,25.5,20.4,30.17,West,270,0.0,2.2,81,0.00,,,0.00,WUHU216HW,2013-12-27 07:50:00,
2013-12-27 01:51:00,25.5,20.4,30.17,West,270,0.0,2.2,81,0.00,,,0.00,WUHU216HW,2013-12-27 07:51:00,
2013-12-27 01:52:00,25.3,20.3,30.17,WSW,248,0.8,2.2,81,0.00,,,0.00,WUHU216HW,2013-12-27 07:52:00,
2013-12-27 01:53:00,25.3,20.3,30.17,WSW,248,0.8,2.2,81,0.00,,,0.00,WUHU216HW,2013-12-27 07:53:00,
2013-12-27 01:55:00,25.3,20.3,30.17,West,270,0.8,2.0,81,0.00,,,0.00,WUHU216HW,2013-12-27 07:55:00,
2013-12-27 01:56:00,25.3,20.3,30.17,West,270,0.8,2.0,81,0.00,,,0.00,WUHU216HW,2013-12-27 07:56:00,
2013-12-27 01:57:00,25.1,20.1,30.17,West,270,0.8,1.1,81,0.00,,,0.00,WUHU216HW,2013-12-27 07:57:00,
2013-12-27 01:59:00,25.1,20.1,30.17,West,270,0.8,1.1,81,0.00,,,0.00,WUHU216HW,2013-12-27 07:59:00,
2013-12-27 02:00:00,25.1,20.1,30.17,West,270,0.8,1.1,81,0.00,,,0.00,WUHU216HW,2013-12-27 08:00:00,
2013-12-27 02:01:00,25.1,20.1,30.17,WSW,248,2.2,2.2,81,0.00,,,0.00,WUHU216HW,2013-12-27 08:01:00,
2013-12-27 02:03:00,25.1,20.1,30.17,West,270,0.8,2.2,81,0.00,,,0.00,WUHU216HW,2013-12-27 08:03:00,
2013-12-27 02:04:00,25.1,20.1,30.17,West,270,0.8,2.2,81,0.00,,,0.00,WUHU216HW,2013-12-27 08:04:00,
2013-12-27 02:06:00,25.1,20.1,30.17,WSW,248,0.0,2.2,81,0.00,,,0.00,WUHU216HW,2013-12-27 08:06:00,
2013-12-27 02:07:00,24.9,20.0,30.17,WSW,248,2.4,2.4,81,0.00,,,0.00,WUHU216HW,2013-12-27 08:07:00,
2013-12-27 02:09:00,24.9,20.0,30.17,West,270,1.7,2.4,81,0.00,,,0.00,WUHU216HW,2013-12-27 08:09:00,
2013-12-27 02:11:00,24.9,20.0,30.17,WSW,248,2.4,2.4,81,0.00,,,0.00,WUHU216HW,2013-12-27 08:11:00,
2013-12-27 02:12:00,24.9,20.0,30.17,WSW,248,2.4,2.4,81,0.00,,,0.00,WUHU216HW,2013-12-27 08:12:00,
2013-12-27 02:14:00,24.9,20.2,30.17,West,270,0.8,2.4,82,0.00,,,0.00,WUHU216HW,2013-12-27 08:14:00,
2013-12-27 02:16:00,24.9,20.2,30.17,West,270,0.0,2.4,82,0.00,,,0.00,WUHU216HW,2013-12-27 08:16:00,
2013-12-27 02:17:00,24.9,20.2,30.17,West,270,0.0,2.4,82,0.00,,,0.00,WUHU216HW,2013-12-27 08:17:00,
2013-12-27 02:19:00,24.6,19.9,30.17,West,270,1.1,2.4,82,0.00,,,0.00,WUHU216HW,2013-12-27 08:19:00,
2013-12-27 02:21:00,24.6,19.9,30.17,West,270,1.1,2.4,82,0.00,,,0.00,WUHU216HW,2013-12-27 08:21:00,
2013-12-27 02:22:00,24.6,19.9,30.17,WSW,248,0.0,1.3,82,0.00,,,0.00,WUHU216HW,2013-12-27 08:22:00,
2013-12-27 02:24:00,24.6,19.9,30.17,West,270,0.0,1.3,82,0.00,,,0.00,WUHU216HW,2013-12-27 08:24:00,
2013-12-27 02:25:00,24.6,19.9,30.17,West,270,0.0,1.3,82,0.00,,,0.00,WUHU216HW,2013-12-27 08:25:00,
2013-12-27 02:26:00,24.6,19.9,30.17,WSW,248,1.1,1.3,82,0.00,,,0.00,WUHU216HW,2013-12-27 08:26:00,
2013-12-27 02:27:00,24.6,19.9,30.17,WSW,248,1.1,1.3,82,0.00,,,0.00,WUHU216HW,2013-12-27 08:27:00,
2013-12-27 02:28:00,24.6,19.9,30.17,West,270,1.1,1.3,82,0.00,,,0.00,WUHU216HW,2013-12-27 08:28:00,
2013-12-27 02:29:00,24.6,19.9,30.17,West,270,0.8,1.1,82,0.00,,,0.00,WUHU216HW,2013-12-27 08:29:00,
2013-12-27 02:30:00,24.6,19.9,30.17,West,270,0.8,1.1,82,0.00,,,0.00,WUHU216HW,2013-12-27 08:30:00,
2013-12-27 02:31:00,24.6,19.9,30.17,West,270,0.8,1.1,82,0.00,,,0.00,WUHU216HW,2013-12-27 08:31:00,
2013-12-27 02:32:00,24.6,19.7,30.17,WSW,248,0.6,1.1,82,0.00,,,0.00,WUHU216HW,2013-12-27 08:32:00,
2013-12-27 02:33:00,24.4,19.7,30.17,WSW,248,0.6,1.1,82,0.00,,,0.00,WUHU216HW,2013-12-27 08:33:00,
2013-12-27 02:35:00,24.4,19.7,30.17,WSW,248,0.0,1.1,82,0.00,,,0.00,WUHU216HW,2013-12-27 08:35:00,
2013-12-27 02:36:00,24.4,19.7,30.17,WSW,248,0.0,1.1,82,0.00,,,0.00,WUHU216HW,2013-12-27 08:36:00,
2013-12-27 02:37:00,24.4,19.7,30.17,WSW,248,1.5,1.5,82,0.00,,,0.00,WUHU216HW,2013-12-27 08:37:00,
2013-12-27 02:38:00,24.4,19.7,30.17,WSW,248,1.5,1.5,82,0.00,,,0.00,WUHU216HW,2013-12-27 08:38:00,
2013-12-27 02:40:00,24.4,19.7,30.17,SW,225,1.7,1.7,82,0.00,,,0.00,WUHU216HW,2013-12-27 08:40:00,
2013-12-27 02:41:00,24.4,19.7,30.17,SW,225,1.7,1.7,82,0.00,,,0.00,WUHU216HW,2013-12-27 08:41:00,
2013-12-27 02:42:00,24.4,19.7,30.17,SW,225,1.1,1.7,82,0.00,,,0.00,WUHU216HW,2013-12-27 08:42:00,
2013-12-27 02:43:00,24.4,19.7,30.17,SW,225,1.1,1.7,82,0.00,,,0.00,WUHU216HW,2013-12-27 08:43:00,
2013-12-27 02:44:00,24.4,19.7,30.17,SW,225,1.1,1.7,82,0.00,,,0.00,WUHU216HW,2013-12-27 08:44:00,
2013-12-27 02:46:00,24.0,19.4,30.17,SW,225,0.8,1.7,82,0.00,,,0.00,WUHU216HW,2013-12-27 08:46:00,
2013-12-27 02:47:00,24.0,19.4,30.17,SW,225,0.0,1.7,82,0.00,,,0.00,WUHU216HW,2013-12-27 08:47:00,
2013-12-27 02:49:00,24.0,19.4,30.17,SW,225,0.0,1.7,82,0.00,,,0.00,WUHU216HW,2013-12-27 08:49:00,
2013-12-27 02:51:00,24.0,19.4,30.17,SW,225,1.3,2.2,82,0.00,,,0.00,WUHU216HW,2013-12-27 08:51:00,
2013-12-27 02:52:00,24.0,19.4,30.17,SW,225,1.3,2.2,82,0.00,,,0.00,WUHU216HW,2013-12-27 08:52:00,
2013-12-27 02:54:00,24.0,19.4,30.17,SW,225,1.3,2.2,82,0.00,,,0.00,WUHU216HW,2013-12-27 08:54:00,
2013-12-27 02:57:00,24.0,19.4,30.17,SW,225,1.3,2.2,82,0.00,,,0.00,WUHU216HW,2013-12-27 08:57:00,
2013-12-27 02:58:00,24.0,19.2,30.17,SW,225,0.8,2.2,82,0.00,,,0.00,WUHU216HW,2013-12-27 08:58:00,
2013-12-27 02:59:00,23.9,19.2,30.17,SW,225,0.8,2.2,82,0.00,,,0.00,WUHU216HW,2013-12-27 08:59:00,
2013-12-27 03:00:00,23.9,19.2,30.18,SW,225,0.0,2.2,82,0.00,,,0.00,WUHU216HW,2013-12-27 09:00:00,
2013-12-27 03:02:00,23.9,19.2,30.17,SW,225,0.0,1.3,82,0.00,,,0.00,WUHU216HW,2013-12-27 09:02:00,
2013-12-27 03:03:00,23.9,19.2,30.17,SW,225,0.0,1.3,82,0.00,,,0.00,WUHU216HW,2013-12-27 09:03:00,
2013-12-27 03:04:00,23.7,19.0,30.17,SW,225,0.0,1.3,82,0.00,,,0.00,WUHU216HW,2013-12-27 09:04:00,
2013-12-27 03:05:00,23.7,19.0,30.17,SW,225,0.0,1.3,82,0.00,,,0.00,WUHU216HW,2013-12-27 09:05:00,
2013-12-27 03:07:00,23.7,19.0,30.17,SW,225,2.2,2.2,82,0.00,,,0.00,WUHU216HW,2013-12-27 09:07:00,
2013-12-27 03:08:00,23.7,19.0,30.17,SW,225,2.2,2.2,82,0.00,,,0.00,WUHU216HW,2013-12-27 09:08:00,
2013-12-27 03:09:00,23.7,19.0,30.17,SW,225,2.6,2.6,82,0.00,,,0.00,WUHU216HW,2013-12-27 09:09:00,
2013-12-27 03:10:00,23.7,19.0,30.17,SW,225,2.2,2.6,82,0.00,,,0.00,WUHU216HW,2013-12-27 09:10:00,
2013-12-27 03:12:00,23.7,19.0,30.17,SW,225,2.6,2.6,82,0.00,,,0.00,WUHU216HW,2013-12-27 09:12:00,
2013-12-27 03:13:00,23.7,19.0,30.17,SW,225,2.6,2.6,82,0.00,,,0.00,WUHU216HW,2013-12-27 09:13:00,
2013-12-27 03:14:00,23.7,19.0,30.17,SW,225,2.6,2.6,82,0.00,,,0.00,WUHU216HW,2013-12-27 09:14:00,
2013-12-27 03:15:00,23.5,18.8,30.17,SW,225,1.5,2.6,82,0.00,,,0.00,WUHU216HW,2013-12-27 09:15:00,
2013-12-27 03:16:00,23.5,18.8,30.18,SW,225,1.5,2.6,82,0.00,,,0.00,WUHU216HW,2013-12-27 09:16:00,
2013-12-27 03:18:00,23.5,18.8,30.17,SSW,203,1.1,2.6,82,0.00,,,0.00,WUHU216HW,2013-12-27 09:18:00,
2013-12-27 03:19:00,23.5,18.8,30.18,SSW,203,1.1,2.6,82,0.00,,,0.00,WUHU216HW,2013-12-27 09:19:00,
2013-12-27 03:20:00,23.5,17.6,30.18,SSW,203,2.0,2.6,83,0.00,,,0.00,WUHU216HW,2013-12-27 09:20:00,
2013-12-27 03:22:00,23.5,19.1,30.18,SSW,203,2.4,2.6,83,0.00,,,0.00,WUHU216HW,2013-12-27 09:22:00,
2013-12-27 03:23:00,23.5,19.1,30.18,SSW,203,2.4,2.6,83,0.00,,,0.00,WUHU216HW,2013-12-27 09:23:00,
2013-12-27 03:24:00,23.5,19.1,30.18,SSW,203,3.1,3.1,83,0.00,,,0.00,WUHU216HW,2013-12-27 09:24:00,
2013-12-27 03:26:00,23.5,19.1,30.18,SSW,203,2.2,3.1,83,0.00,,,0.00,WUHU216HW,2013-12-27 09:26:00,
2013-12-27 03:27:00,23.5,19.1,30.18,SSW,203,2.2,3.1,83,0.00,,,0.00,WUHU216HW,2013-12-27 09:27:00,
2013-12-27 03:28:00,23.5,19.1,30.18,SW,225,1.3,3.1,83,0.00,,,0.00,WUHU216HW,2013-12-27 09:28:00,
2013-12-27 03:29:00,23.5,19.1,30.18,SW,225,1.3,3.1,83,0.00,,,0.00,WUHU216HW,2013-12-27 09:29:00,
2013-12-27 03:31:00,23.5,19.1,30.18,SW,225,1.5,3.1,83,0.00,,,0.00,WUHU216HW,2013-12-27 09:31:00,
2013-12-27 03:32:00,23.5,19.1,30.17,SW,225,1.5,3.1,83,0.00,,,0.00,WUHU216HW,2013-12-27 09:32:00,
2013-12-27 03:33:00,23.5,19.1,30.17,SW,225,1.7,3.1,83,0.00,,,0.00,WUHU216HW,2013-12-27 09:33:00,
2013-12-27 03:34:00,23.5,19.1,30.18,SW,225,1.7,3.1,83,0.00,,,0.00,WUHU216HW,2013-12-27 09:34:00,
2013-12-27 03:35:00,23.3,18.9,30.17,SSW,203,2.2,2.2,83,0.00,,,0.00,WUHU216HW,2013-12-27 09:35:00,
2013-12-27 03:36:00,23.5,19.1,30.17,SSW,203,2.4,2.4,83,0.00,,,0.00,WUHU216HW,2013-12-27 09:36:00,
2013-12-27 03:38:00,23.5,19.1,30.18,SSW,203,2.4,2.4,83,0.00,,,0.00,WUHU216HW,2013-12-27 09:38:00,
2013-12-27 03:39:00,23.3,18.9,30.18,SSW,203,2.6,2.6,83,0.00,,,0.00,WUHU216HW,2013-12-27 09:39:00,
2013-12-27 03:40:00,23.3,18.6,30.18,SSW,203,2.4,2.6,82,0.00,,,0.00,WUHU216HW,2013-12-27 09:40:00,
2013-12-27 03:42:00,23.3,18.6,30.17,SSW,203,2.4,2.6,82,0.00,,,0.00,WUHU216HW,2013-12-27 09:42:00,
2013-12-27 03:43:00,23.3,18.6,30.18,SSW,203,2.9,2.9,82,0.00,,,0.00,WUHU216HW,2013-12-27 09:43:00,
2013-12-27 03:44:00,23.3,18.6,30.18,SSW,203,2.9,2.9,82,0.00,,,0.00,WUHU216HW,2013-12-27 09:44:00,
2013-12-27 03:46:00,23.1,18.7,30.18,SSW,203,2.4,2.9,83,0.00,,,0.00,WUHU216HW,2013-12-27 09:46:00,
2013-12-27 03:47:00,23.1,18.7,30.18,SW,225,2.9,2.9,83,0.00,,,0.00,WUHU216HW,2013-12-27 09:47:00,
2013-12-27 03:48:00,23.1,18.7,30.18,SW,225,2.9,2.9,83,0.00,,,0.00,WUHU216HW,2013-12-27 09:48:00,
2013-12-27 03:49:00,23.1,18.7,30.18,SSW,203,1.5,2.9,83,0.00,,,0.00,WUHU216HW,2013-12-27 09:49:00,
2013-12-27 03:52:00,23.1,18.7,30.18,SSW,203,3.1,3.1,83,0.00,,,0.00,WUHU216HW,2013-12-27 09:52:00,
2013-12-27 03:53:00,23.1,18.7,30.18,SSW,203,3.1,3.1,83,0.00,,,0.00,WUHU216HW,2013-12-27 09:53:00,
2013-12-27 03:54:00,23.0,18.5,30.18,SW,225,2.2,3.1,83,0.00,,,0.00,WUHU216HW,2013-12-27 09:54:00,
2013-12-27 03:57:00,22.8,18.4,30.18,SSW,203,2.9,3.1,83,0.00,,,0.00,WUHU216HW,2013-12-27 09:57:00,
2013-12-27 03:58:00,22.8,18.4,30.18,SSW,203,2.0,3.1,83,0.00,,,0.00,WUHU216HW,2013-12-27 09:58:00,
2013-12-27 03:59:00,22.8,18.4,30.17,SSW,203,1.1,3.1,83,0.00,,,0.00,WUHU216HW,2013-12-27 09:59:00,
2013-12-27 04:00:00,22.8,18.4,30.17,SSW,203,1.1,3.1,83,0.00,,,0.00,WUHU216HW,2013-12-27 10:00:00,
2013-12-27 04:02:00,22.8,18.4,30.17,SSW,203,3.1,3.1,83,0.00,,,0.00,WUHU216HW,2013-12-27 10:02:00,
2013-12-27 04:03:00,22.8,18.4,30.17,SSW,203,3.1,3.1,83,0.00,,,0.00,WUHU216HW,2013-12-27 10:03:00,
2013-12-27 04:05:00,22.8,18.4,30.17,SSW,203,2.6,3.1,83,0.00,,,0.00,WUHU216HW,2013-12-27 10:05:00,
2013-12-27 04:07:00,22.8,18.4,30.17,SW,225,2.2,3.1,83,0.00,,,0.00,WUHU216HW,2013-12-27 10:07:00,
2013-12-27 04:08:00,22.8,18.4,30.17,SW,225,2.2,3.1,83,0.00,,,0.00,WUHU216HW,2013-12-27 10:08:00,
2013-12-27 04:10:00,22.8,18.4,30.17,SW,225,3.5,3.5,83,0.00,,,0.00,WUHU216HW,2013-12-27 10:10:00,
2013-12-27 04:12:00,22.8,18.4,30.17,SW,225,1.7,3.5,83,0.00,,,0.00,WUHU216HW,2013-12-27 10:12:00,
2013-12-27 04:13:00,22.6,18.2,30.17,SW,225,0.0,3.5,83,0.00,,,0.00,WUHU216HW,2013-12-27 10:13:00,
2013-12-27 04:14:00,22.6,18.2,30.17,SW,225,0.0,3.5,83,0.00,,,0.00,WUHU216HW,2013-12-27 10:14:00,
2013-12-27 04:15:00,22.6,18.2,30.17,SW,225,0.0,3.5,83,0.00,,,0.00,WUHU216HW,2013-12-27 10:15:00,
2013-12-27 04:17:00,22.6,18.2,30.17,SW,225,0.0,3.5,83,0.00,,,0.00,WUHU216HW,2013-12-27 10:17:00,
2013-12-27 04:18:00,22.6,18.2,30.17,SW,225,0.0,3.5,83,0.00,,,0.00,WUHU216HW,2013-12-27 10:18:00,
2013-12-27 04:19:00,22.6,18.2,30.17,SW,225,0.0,3.5,83,0.00,,,0.00,WUHU216HW,2013-12-27 10:19:00,
2013-12-27 04:21:00,22.4,18.0,30.17,SW,225,0.0,1.7,83,0.00,,,0.00,WUHU216HW,2013-12-27 10:21:00,
2013-12-27 04:22:00,22.2,17.8,30.17,SW,225,2.2,2.2,83,0.00,,,0.00,WUHU216HW,2013-12-27 10:22:00,
2013-12-27 04:23:00,22.2,17.8,30.17,SW,225,2.2,2.2,83,0.00,,,0.00,WUHU216HW,2013-12-27 10:23:00,
2013-12-27 04:24:00,22.2,17.8,30.17,SW,225,2.0,2.2,83,0.00,,,0.00,WUHU216HW,2013-12-27 10:24:00,
2013-12-27 04:26:00,22.2,17.8,30.17,SSW,203,1.3,2.2,83,0.00,,,0.00,WUHU216HW,2013-12-27 10:26:00,
2013-12-27 04:27:00,22.2,17.8,30.17,SSW,203,1.3,2.2,83,0.00,,,0.00,WUHU216HW,2013-12-27 10:27:00,
2013-12-27 04:29:00,22.1,17.6,30.17,SSW,203,0.0,2.2,83,0.00,,,0.00,WUHU216HW,2013-12-27 10:29:00,
2013-12-27 04:31:00,22.1,17.5,30.17,SSW,203,1.5,2.2,83,0.00,,,0.00,WUHU216HW,2013-12-27 10:31:00,
2013-12-27 04:32:00,22.1,17.5,30.17,SSW,203,1.5,2.2,83,0.00,,,0.00,WUHU216HW,2013-12-27 10:32:00,
2013-12-27 04:33:00,21.9,17.5,30.17,SSW,203,1.5,2.0,83,0.00,,,0.00,WUHU216HW,2013-12-27 10:33:00,
2013-12-27 04:34:00,21.9,17.5,30.17,SW,225,0.0,1.5,83,0.00,,,0.00,WUHU216HW,2013-12-27 10:34:00,
2013-12-27 04:35:00,21.9,17.5,30.17,SW,225,0.0,1.5,83,0.00,,,0.00,WUHU216HW,2013-12-27 10:35:00,
2013-12-27 04:36:00,21.9,17.5,30.17,SSW,203,2.9,2.9,83,0.00,,,0.00,WUHU216HW,2013-12-27 10:36:00,
2013-12-27 04:37:00,21.9,17.5,30.17,SSW,203,2.9,2.9,83,0.00,,,0.00,WUHU216HW,2013-12-27 10:37:00,
2013-12-27 04:38:00,21.9,17.5,30.17,SSW,203,1.5,2.9,83,0.00,,,0.00,WUHU216HW,2013-12-27 10:38:00,
2013-12-27 04:39:00,21.9,17.5,30.18,SSW,203,1.5,2.9,83,0.00,,,0.00,WUHU216HW,2013-12-27 10:39:00,
2013-12-27 04:41:00,21.9,17.5,30.18,SW,225,2.2,2.9,83,0.00,,,0.00,WUHU216HW,2013-12-27 10:41:00,
2013-12-27 04:42:00,21.9,17.5,30.18,SW,225,2.2,2.9,83,0.00,,,0.00,WUHU216HW,2013-12-27 10:42:00,
2013-12-27 04:44:00,21.9,17.5,30.18,SSW,203,3.3,3.3,83,0.00,,,0.00,WUHU216HW,2013-12-27 10:44:00,
2013-12-27 04:46:00,21.7,17.3,30.18,SSW,203,3.1,3.3,83,0.00,,,0.00,WUHU216HW,2013-12-27 10:46:00,
2013-12-27 04:47:00,21.7,17.3,30.18,SSW,203,3.1,3.3,83,0.00,,,0.00,WUHU216HW,2013-12-27 10:47:00,
2013-12-27 04:48:00,21.7,17.3,30.18,SW,225,2.6,3.3,83,0.00,,,0.00,WUHU216HW,2013-12-27 10:48:00,
2013-12-27 04:49:00,21.7,17.3,30.19,SW,225,2.0,3.3,83,0.00,,,0.00,WUHU216HW,2013-12-27 10:49:00,
2013-12-27 04:51:00,21.7,17.3,30.18,SW,225,2.0,3.3,83,0.00,,,0.00,WUHU216HW,2013-12-27 10:51:00,
2013-12-27 04:52:00,21.7,17.3,30.19,SSW,203,4.0,4.0,83,0.00,,,0.00,WUHU216HW,2013-12-27 10:52:00,
2013-12-27 04:53:00,21.7,17.3,30.18,SSW,203,4.0,4.0,83,0.00,,,0.00,WUHU216HW,2013-12-27 10:53:00,
2013-12-27 04:54:00,21.7,17.6,30.18,SSW,203,1.3,4.0,84,0.00,,,0.00,WUHU216HW,2013-12-27 10:54:00,
2013-12-27 04:55:00,21.7,17.6,30.18,SSW,203,1.3,4.0,84,0.00,,,0.00,WUHU216HW,2013-12-27 10:55:00,
2013-12-27 04:57:00,21.5,17.4,30.18,SSW,203,1.5,4.0,84,0.00,,,0.00,WUHU216HW,2013-12-27 10:57:00,
2013-12-27 04:58:00,21.5,17.4,30.18,SW,225,2.6,4.0,84,0.00,,,0.00,WUHU216HW,2013-12-27 10:58:00,
2013-12-27 05:00:00,21.5,17.4,30.18,SSW,203,0.6,4.0,84,0.00,,,0.00,WUHU216HW,2013-12-27 11:00:00,
2013-12-27 05:02:00,21.5,17.4,30.18,SW,225,4.4,4.4,84,0.00,,,0.00,WUHU216HW,2013-12-27 11:02:00,
2013-12-27 05:03:00,21.5,17.4,30.18,SW,225,4.4,4.4,84,0.00,,,0.00,WUHU216HW,2013-12-27 11:03:00,
2013-12-27 05:05:00,21.5,17.4,30.18,SSW,203,4.0,4.4,84,0.00,,,0.00,WUHU216HW,2013-12-27 11:05:00,
2013-12-27 05:07:00,21.5,17.4,30.18,South,180,1.3,4.4,84,0.00,,,0.00,WUHU216HW,2013-12-27 11:07:00,
2013-12-27 05:08:00,21.5,17.4,30.19,SW,225,3.5,4.4,84,0.00,,,0.00,WUHU216HW,2013-12-27 11:08:00,
2013-12-27 05:09:00,21.5,17.4,30.19,SW,225,3.5,4.4,84,0.00,,,0.00,WUHU216HW,2013-12-27 11:09:00,
2013-12-27 05:10:00,21.5,17.4,30.18,SSW,203,2.0,4.4,84,0.00,,,0.00,WUHU216HW,2013-12-27 11:10:00,
2013-12-27 05:11:00,21.5,17.4,30.18,SSW,203,2.0,4.4,84,0.00,,,0.00,WUHU216HW,2013-12-27 11:11:00,
2013-12-27 05:12:00,21.5,17.4,30.18,SSW,203,1.3,4.4,84,0.00,,,0.00,WUHU216HW,2013-12-27 11:12:00,
2013-12-27 05:13:00,21.5,17.4,30.18,SSW,203,1.3,4.4,84,0.00,,,0.00,WUHU216HW,2013-12-27 11:13:00,
2013-12-27 05:14:00,21.5,17.4,30.18,SSW,203,1.3,4.0,84,0.00,,,0.00,WUHU216HW,2013-12-27 11:14:00,
2013-12-27 05:16:00,21.5,17.4,30.18,SW,225,2.0,3.5,84,0.00,,,0.00,WUHU216HW,2013-12-27 11:16:00,
2013-12-27 05:18:00,21.5,17.4,30.18,SW,225,2.0,3.5,84,0.00,,,0.00,WUHU216HW,2013-12-27 11:18:00,
2013-12-27 05:19:00,21.5,17.4,30.18,SW,225,2.0,3.5,84,0.00,,,0.00,WUHU216HW,2013-12-27 11:19:00,
2013-12-27 05:21:00,21.5,17.4,30.18,SW,225,0.8,2.0,84,0.00,,,0.00,WUHU216HW,2013-12-27 11:21:00,
2013-12-27 05:24:00,21.5,17.4,30.18,SW,225,1.1,2.0,84,0.00,,,0.00,WUHU216HW,2013-12-27 11:24:00,
2013-12-27 05:26:00,21.5,17.4,30.18,SW,225,0.0,2.0,84,0.00,,,0.00,WUHU216HW,2013-12-27 11:26:00,
2013-12-27 05:27:00,21.5,17.4,30.18,SW,225,0.0,2.0,84,0.00,,,0.00,WUHU216HW,2013-12-27 11:27:00,
2013-12-27 05:29:00,21.3,17.2,30.18,SW,225,0.0,1.3,84,0.00,,,0.00,WUHU216HW,2013-12-27 11:29:00,
2013-12-27 05:30:00,21.5,17.4,30.18,SW,225,0.0,1.3,84,0.00,,,0.00,WUHU216HW,2013-12-27 11:30:00,
2013-12-27 05:31:00,21.5,17.4,30.18,SW,225,0.0,1.3,84,0.00,,,0.00,WUHU216HW,2013-12-27 11:31:00,
2013-12-27 05:32:00,21.3,17.4,30.18,SW,225,0.0,1.3,84,0.00,,,0.00,WUHU216HW,2013-12-27 11:32:00,
2013-12-27 05:34:00,21.3,17.2,30.18,SW,225,1.3,1.3,84,0.00,,,0.00,WUHU216HW,2013-12-27 11:34:00,
2013-12-27 05:35:00,21.3,17.2,30.18,SW,225,1.3,1.3,84,0.00,,,0.00,WUHU216HW,2013-12-27 11:35:00,
2013-12-27 05:36:00,21.3,17.2,30.18,SW,225,1.3,1.3,84,0.00,,,0.00,WUHU216HW,2013-12-27 11:36:00,
2013-12-27 05:37:00,21.3,17.2,30.19,SW,225,0.0,1.3,84,0.00,,,0.00,WUHU216HW,2013-12-27 11:37:00,
2013-12-27 05:39:00,21.3,17.2,30.19,WSW,248,0.0,1.3,84,0.00,,,0.00,WUHU216HW,2013-12-27 11:39:00,
2013-12-27 05:40:00,21.3,17.2,30.18,WSW,248,0.0,1.3,84,0.00,,,0.00,WUHU216HW,2013-12-27 11:40:00,
2013-12-27 05:41:00,21.3,17.2,30.19,West,270,0.0,1.3,84,0.00,,,0.00,WUHU216HW,2013-12-27 11:41:00,
2013-12-27 05:42:00,21.3,17.2,30.19,West,270,0.0,1.3,84,0.00,,,0.00,WUHU216HW,2013-12-27 11:42:00,
2013-12-27 05:45:00,21.3,17.2,30.19,WNW,293,0.0,1.3,84,0.00,,,0.00,WUHU216HW,2013-12-27 11:45:00,
2013-12-27 05:46:00,21.3,17.2,30.19,WNW,293,0.0,0.0,84,0.00,,,0.00,WUHU216HW,2013-12-27 11:46:00,
2013-12-27 05:47:00,21.3,17.2,30.19,West,270,0.0,0.0,84,0.00,,,0.00,WUHU216HW,2013-12-27 11:47:00,
2013-12-27 05:50:00,21.3,17.2,30.19,WSW,248,1.1,1.1,84,0.00,,,0.00,WUHU216HW,2013-12-27 11:50:00,
2013-12-27 05:51:00,21.3,17.2,30.19,WSW,248,1.1,1.1,84,0.00,,,0.00,WUHU216HW,2013-12-27 11:51:00,
2013-12-27 05:52:00,21.3,17.2,30.19,West,270,0.0,1.1,84,0.00,,,0.00,WUHU216HW,2013-12-27 11:52:00,
2013-12-27 05:55:00,21.3,17.2,30.19,NW,315,0.0,1.1,84,0.00,,,0.00,WUHU216HW,2013-12-27 11:55:00,
2013-12-27 05:56:00,21.3,17.2,30.19,West,270,0.0,1.1,84,0.00,,,0.00,WUHU216HW,2013-12-27 11:56:00,
2013-12-27 05:57:00,21.3,17.2,30.19,West,270,0.0,1.1,84,0.00,,,0.00,WUHU216HW,2013-12-27 11:57:00,
2013-12-27 06:00:00,21.3,17.2,30.19,West,270,0.0,1.1,84,0.00,,,0.00,WUHU216HW,2013-12-27 12:00:00,
2013-12-27 06:01:00,21.3,17.2,30.19,West,270,0.0,0.0,84,0.00,,,0.00,WUHU216HW,2013-12-27 12:01:00,
2013-12-27 06:02:00,21.3,17.2,30.19,WNW,293,0.0,0.0,84,0.00,,,0.00,WUHU216HW,2013-12-27 12:02:00,
2013-12-27 06:03:00,21.3,17.2,30.19,WNW,293,0.0,0.0,84,0.00,,,0.00,WUHU216HW,2013-12-27 12:03:00,
2013-12-27 06:05:00,21.3,17.2,30.19,West,270,0.0,0.0,84,0.00,,,0.00,WUHU216HW,2013-12-27 12:05:00,
2013-12-27 06:06:00,21.3,17.2,30.19,WNW,293,0.0,0.0,84,0.00,,,0.00,WUHU216HW,2013-12-27 12:06:00,
2013-12-27 06:07:00,21.3,17.2,30.19,WNW,293,0.0,0.0,84,0.00,,,0.00,WUHU216HW,2013-12-27 12:07:00,
2013-12-27 06:08:00,21.3,17.2,30.19,WNW,293,0.0,0.0,84,0.00,,,0.00,WUHU216HW,2013-12-27 12:08:00,
2013-12-27 06:10:00,21.3,17.2,30.18,West,270,1.3,1.3,84,0.00,,,0.00,WUHU216HW,2013-12-27 12:10:00,
2013-12-27 06:12:00,21.3,17.2,30.19,West,270,0.0,1.3,84,0.00,,,0.00,WUHU216HW,2013-12-27 12:12:00,
2013-12-27 06:13:00,21.3,17.2,30.18,West,270,3.5,3.5,84,0.00,,,0.00,WUHU216HW,2013-12-27 12:13:00,
2013-12-27 06:15:00,21.3,17.2,30.18,WNW,293,0.8,3.5,84,0.00,,,0.00,WUHU216HW,2013-12-27 12:15:00,
2013-12-27 06:17:00,21.3,17.5,30.18,WSW,248,0.0,3.5,85,0.00,,,0.00,WUHU216HW,2013-12-27 12:17:00,
2013-12-27 06:18:00,21.3,17.5,30.18,WSW,248,0.0,3.5,85,0.00,,,0.00,WUHU216HW,2013-12-27 12:18:00,
2013-12-27 06:20:00,21.3,17.5,30.19,NNW,338,0.0,3.5,85,0.00,,,0.00,WUHU216HW,2013-12-27 12:20:00,
2013-12-27 06:23:00,21.3,17.5,30.18,WNW,293,1.3,3.5,85,0.00,,,0.00,WUHU216HW,2013-12-27 12:23:00,
2013-12-27 06:26:00,21.3,17.5,30.18,WSW,248,1.3,1.3,85,0.00,,,0.00,WUHU216HW,2013-12-27 12:26:00,
2013-12-27 06:28:00,21.3,17.5,30.19,WNW,293,0.0,1.3,85,0.00,,,0.00,WUHU216HW,2013-12-27 12:28:00,
2013-12-27 06:29:00,21.3,17.5,30.19,WNW,293,0.0,1.3,85,0.00,,,0.00,WUHU216HW,2013-12-27 12:29:00,
2013-12-27 06:31:00,21.3,17.5,30.19,West,270,0.0,1.3,85,0.00,,,0.00,WUHU216HW,2013-12-27 12:31:00,
2013-12-27 06:33:00,21.3,17.5,30.19,West,270,0.0,1.3,85,0.00,,,0.00,WUHU216HW,2013-12-27 12:33:00,
2013-12-27 06:34:00,21.3,17.5,30.19,West,270,0.0,1.3,85,0.00,,,0.00,WUHU216HW,2013-12-27 12:34:00,
2013-12-27 06:37:00,21.3,17.5,30.19,SW,225,0.0,3.1,85,0.00,,,0.00,WUHU216HW,2013-12-27 12:37:00,
2013-12-27 06:38:00,21.3,17.5,30.19,SW,225,0.0,3.1,85,0.00,,,0.00,WUHU216HW,2013-12-27 12:38:00,
2013-12-27 06:39:00,21.2,17.3,30.19,WNW,293,0.8,3.1,85,0.00,,,0.00,WUHU216HW,2013-12-27 12:39:00,
2013-12-27 06:42:00,21.0,17.1,30.19,West,270,1.3,3.1,85,0.00,,,0.00,WUHU216HW,2013-12-27 12:42:00,
2013-12-27 06:44:00,21.0,17.1,30.19,West,270,0.0,3.1,85,0.00,,,0.00,WUHU216HW,2013-12-27 12:44:00,
2013-12-27 06:47:00,21.0,17.1,30.19,West,270,0.8,1.3,85,0.00,,,0.00,WUHU216HW,2013-12-27 12:47:00,
2013-12-27 06:49:00,21.0,17.1,30.19,West,270,1.3,1.3,85,0.00,,,0.00,WUHU216HW,2013-12-27 12:49:00,
2013-12-27 06:50:00,21.0,17.1,30.19,West,270,0.0,1.3,85,0.00,,,0.00,WUHU216HW,2013-12-27 12:50:00,
2013-12-27 06:52:00,21.0,17.1,30.19,West,270,0.0,1.3,85,0.00,,,0.00,WUHU216HW,2013-12-27 12:52:00,
2013-12-27 06:54:00,21.0,17.1,30.19,WSW,248,3.5,3.5,85,0.00,,,0.00,WUHU216HW,2013-12-27 12:54:00,
2013-12-27 06:55:00,21.0,17.1,30.19,WSW,248,3.5,3.5,85,0.00,,,0.00,WUHU216HW,2013-12-27 12:55:00,
2013-12-27 06:57:00,20.8,16.9,30.20,WNW,293,0.0,3.5,85,0.00,,,0.00,WUHU216HW,2013-12-27 12:57:00,
2013-12-27 06:59:00,20.8,16.9,30.20,West,270,2.0,3.5,85,0.00,,,0.00,WUHU216HW,2013-12-27 12:59:00,
2013-12-27 07:00:00,20.8,16.9,30.20,West,270,2.0,3.5,85,0.00,,,0.00,WUHU216HW,2013-12-27 13:00:00,
2013-12-27 07:02:00,20.8,16.9,30.20,West,270,2.0,3.5,85,0.00,,,0.00,WUHU216HW,2013-12-27 13:02:00,
2013-12-27 07:04:00,20.8,16.9,30.20,West,270,0.0,2.0,85,0.00,,,0.00,WUHU216HW,2013-12-27 13:04:00,
2013-12-27 07:05:00,20.8,16.9,30.20,West,270,0.0,2.0,85,0.00,,,0.00,WUHU216HW,2013-12-27 13:05:00,
2013-12-27 07:07:00,20.8,16.9,30.20,SW,225,1.3,2.0,85,0.00,,,0.00,WUHU216HW,2013-12-27 13:07:00,
2013-12-27 07:10:00,20.8,16.9,30.20,WSW,248,0.0,2.0,85,0.00,,,0.00,WUHU216HW,2013-12-27 13:10:00,
2013-12-27 07:11:00,20.8,16.9,30.20,West,270,0.0,2.0,85,0.00,,,0.00,WUHU216HW,2013-12-27 13:11:00,
2013-12-27 07:12:00,20.8,16.9,30.20,West,270,0.0,1.3,85,0.00,,,0.00,WUHU216HW,2013-12-27 13:12:00,
2013-12-27 07:15:00,20.6,16.6,30.20,WSW,248,0.0,1.3,85,0.00,,,0.00,WUHU216HW,2013-12-27 13:15:00,
2013-12-27 07:17:00,20.4,16.6,30.20,SW,225,0.0,1.3,85,0.00,,,0.00,WUHU216HW,2013-12-27 13:17:00,
2013-12-27 07:20:00,20.4,16.6,30.20,SW,225,0.0,0.0,85,0.00,,,0.00,WUHU216HW,2013-12-27 13:20:00,
2013-12-27 07:22:00,20.4,16.6,30.20,SW,225,0.0,0.0,85,0.00,,,0.00,WUHU216HW,2013-12-27 13:22:00,
2013-12-27 07:23:00,20.4,16.6,30.20,SW,225,0.0,0.0,85,0.00,,,0.00,WUHU216HW,2013-12-27 13:23:00,
2013-12-27 07:25:00,20.4,16.6,30.20,SW,225,0.8,0.8,85,0.00,,,0.00,WUHU216HW,2013-12-27 13:25:00,
2013-12-27 07:26:00,20.4,16.6,30.20,SW,225,0.0,0.8,85,0.00,,,0.00,WUHU216HW,2013-12-27 13:26:00,
2013-12-27 07:27:00,20.4,16.6,30.20,SW,225,0.0,0.8,85,0.00,,,0.00,WUHU216HW,2013-12-27 13:27:00,
2013-12-27 07:28:00,20.4,16.6,30.20,SW,225,0.0,0.8,85,0.00,,,0.00,WUHU216HW,2013-12-27 13:28:00,
2013-12-27 07:30:00,20.4,16.4,30.20,SW,225,0.0,0.8,85,0.00,,,0.00,WUHU216HW,2013-12-27 13:30:00,
2013-12-27 07:31:00,20.3,16.4,30.20,SW,225,0.0,0.8,85,0.00,,,0.00,WUHU216HW,2013-12-27 13:31:00,
2013-12-27 07:32:00,20.3,16.4,30.20,SW,225,0.0,0.8,85,0.00,,,0.00,WUHU216HW,2013-12-27 13:32:00,
2013-12-27 07:33:00,20.3,16.4,30.21,SSW,203,0.0,0.8,85,0.00,,,0.00,WUHU216HW,2013-12-27 13:33:00,
2013-12-27 07:35:00,20.1,16.2,30.21,SSW,203,0.0,0.0,85,0.00,,,0.00,WUHU216HW,2013-12-27 13:35:00,
2013-12-27 07:36:00,20.1,16.2,30.21,SSW,203,0.0,0.0,85,0.00,,,0.00,WUHU216HW,2013-12-27 13:36:00,
2013-12-27 07:37:00,20.3,16.4,30.21,SW,225,0.0,0.0,85,0.00,,,0.00,WUHU216HW,2013-12-27 13:37:00,
2013-12-27 07:38:00,20.3,16.4,30.21,SW,225,0.0,0.0,85,0.00,,,0.00,WUHU216HW,2013-12-27 13:38:00,
2013-12-27 07:39:00,20.3,16.4,30.21,SW,225,0.0,0.0,85,0.00,,,0.00,WUHU216HW,2013-12-27 13:39:00,
2013-12-27 07:40:00,20.1,16.2,30.20,SW,225,1.3,1.3,85,0.00,,,0.00,WUHU216HW,2013-12-27 13:40:00,
2013-12-27 07:41:00,20.1,16.2,30.20,SW,225,1.3,1.3,85,0.00,,,0.00,WUHU216HW,2013-12-27 13:41:00,
2013-12-27 07:42:00,20.1,16.2,30.20,SW,225,1.3,1.3,85,0.00,,,0.00,WUHU216HW,2013-12-27 13:42:00,
2013-12-27 07:43:00,20.1,16.2,30.20,SW,225,1.1,1.3,85,0.00,,,0.00,WUHU216HW,2013-12-27 13:43:00,
2013-12-27 07:44:00,20.1,16.2,30.20,SW,225,1.1,1.3,85,0.00,,,0.00,WUHU216HW,2013-12-27 13:44:00,
2013-12-27 07:45:00,20.3,16.4,30.20,SW,225,0.8,1.3,85,0.00,,,0.00,WUHU216HW,2013-12-27 13:45:00,
2013-12-27 07:46:00,20.3,16.4,30.20,SW,225,0.8,1.3,85,0.00,,,0.00,WUHU216HW,2013-12-27 13:46:00,
2013-12-27 07:47:00,20.3,16.4,30.20,SW,225,0.8,1.3,85,0.00,,,0.00,WUHU216HW,2013-12-27 13:47:00,
2013-12-27 07:48:00,20.1,16.2,30.20,SW,225,0.0,1.3,85,0.00,,,0.00,WUHU216HW,2013-12-27 13:48:00,
2013-12-27 07:49:00,20.1,16.2,30.20,SW,225,0.0,1.3,85,0.00,,,0.00,WUHU216HW,2013-12-27 13:49:00,
2013-12-27 07:50:00,20.1,16.2,30.20,SW,225,1.1,1.3,85,0.00,,,0.00,WUHU216HW,2013-12-27 13:50:00,
2013-12-27 07:52:00,20.1,16.2,30.20,SSW,203,2.0,2.0,85,0.00,,,0.00,WUHU216HW,2013-12-27 13:52:00,
2013-12-27 07:53:00,20.1,16.2,30.19,SSW,203,2.0,2.0,85,0.00,,,0.00,WUHU216HW,2013-12-27 13:53:00,
2013-12-27 07:54:00,20.1,16.2,30.19,SSW,203,0.6,2.0,85,0.00,,,0.00,WUHU216HW,2013-12-27 13:54:00,
2013-12-27 07:56:00,20.4,16.6,30.19,South,180,0.6,2.0,85,0.00,,,0.00,WUHU216HW,2013-12-27 13:56:00,
2013-12-27 07:57:00,20.4,16.6,30.19,South,180,0.6,2.0,85,0.00,,,0.00,WUHU216HW,2013-12-27 13:57:00,
2013-12-27 07:58:00,20.4,16.6,30.19,South,180,1.7,2.0,85,0.00,,,0.00,WUHU216HW,2013-12-27 13:58:00,
2013-12-27 07:59:00,20.4,16.6,30.19,South,180,1.7,2.0,85,0.00,,,0.00,WUHU216HW,2013-12-27 13:59:00,
2013-12-27 08:01:00,20.4,16.6,30.19,South,180,0.8,2.0,85,0.00,,,0.00,WUHU216HW,2013-12-27 14:01:00,
2013-12-27 08:02:00,20.4,16.8,30.19,South,180,0.6,1.7,86,0.00,,,0.00,WUHU216HW,2013-12-27 14:02:00,
2013-12-27 08:03:00,20.4,16.8,30.19,South,180,0.6,1.7,86,0.00,,,0.00,WUHU216HW,2013-12-27 14:03:00,
2013-12-27 08:04:00,20.4,16.8,30.19,South,180,0.6,1.7,86,0.00,,,0.00,WUHU216HW,2013-12-27 14:04:00,
2013-12-27 08:06:00,20.4,16.8,30.19,SSW,203,3.1,3.1,86,0.00,,,0.00,WUHU216HW,2013-12-27 14:06:00,
2013-12-27 08:07:00,20.4,16.8,30.19,SSW,203,3.1,3.1,86,0.00,,,0.00,WUHU216HW,2013-12-27 14:07:00,
2013-12-27 08:08:00,20.4,16.8,30.19,SSW,203,3.1,3.1,86,0.00,,,0.00,WUHU216HW,2013-12-27 14:08:00,
2013-12-27 08:09:00,20.4,16.8,30.19,SSW,203,2.2,3.1,86,0.00,,,0.00,WUHU216HW,2013-12-27 14:09:00,
2013-12-27 08:10:00,20.4,16.8,30.19,SSW,203,2.2,3.1,86,0.00,,,0.00,WUHU216HW,2013-12-27 14:10:00,
2013-12-27 08:11:00,20.8,17.2,30.19,SSW,203,1.7,3.1,86,0.00,,,0.00,WUHU216HW,2013-12-27 14:11:00,
2013-12-27 08:13:00,20.8,17.2,30.19,SSW,203,0.8,3.1,86,0.00,,,0.00,WUHU216HW,2013-12-27 14:13:00,
2013-12-27 08:14:00,20.8,17.2,30.19,SSW,203,0.8,3.1,86,0.00,,,0.00,WUHU216HW,2013-12-27 14:14:00,
2013-12-27 08:15:00,20.8,17.2,30.19,South,180,0.6,3.1,86,0.00,,,0.00,WUHU216HW,2013-12-27 14:15:00,
2013-12-27 08:17:00,21.0,17.4,30.19,South,180,0.6,3.1,86,0.00,,,0.00,WUHU216HW,2013-12-27 14:17:00,
2013-12-27 08:18:00,21.0,17.4,30.19,SSW,203,0.6,2.2,86,0.00,,,0.00,WUHU216HW,2013-12-27 14:18:00,
2013-12-27 08:19:00,21.0,17.4,30.19,SSW,203,0.6,2.2,86,0.00,,,0.00,WUHU216HW,2013-12-27 14:19:00,
2013-12-27 08:20:00,21.2,17.6,30.19,SSW,203,3.8,3.8,86,0.00,,,0.00,WUHU216HW,2013-12-27 14:20:00,
2013-12-27 08:21:00,21.2,17.6,30.19,SSW,203,3.8,3.8,86,0.00,,,0.00,WUHU216HW,2013-12-27 14:21:00,
2013-12-27 08:22:00,21.3,17.7,30.19,SSW,203,3.8,3.8,86,0.00,,,0.00,WUHU216HW,2013-12-27 14:22:00,
2013-12-27 08:23:00,21.3,17.7,30.19,SSW,203,3.8,3.8,86,0.00,,,0.00,WUHU216HW,2013-12-27 14:23:00,
2013-12-27 08:24:00,21.3,17.7,30.19,SSW,203,2.6,3.8,86,0.00,,,0.00,WUHU216HW,2013-12-27 14:24:00,
2013-12-27 08:25:00,21.3,17.7,30.19,SSW,203,2.6,3.8,86,0.00,,,0.00,WUHU216HW,2013-12-27 14:25:00,
2013-12-27 08:26:00,21.7,17.9,30.19,SW,225,1.7,3.8,86,0.00,,,0.00,WUHU216HW,2013-12-27 14:26:00,
2013-12-27 08:27:00,21.7,18.1,30.20,SW,225,1.7,3.8,86,0.00,,,0.00,WUHU216HW,2013-12-27 14:27:00,
2013-12-27 08:28:00,21.9,18.3,30.19,SW,225,1.5,3.8,86,0.00,,,0.00,WUHU216HW,2013-12-27 14:28:00,
2013-12-27 08:29:00,21.9,18.3,30.19,SW,225,1.5,3.8,86,0.00,,,0.00,WUHU216HW,2013-12-27 14:29:00,
2013-12-27 08:30:00,22.1,18.5,30.20,SW,225,2.4,3.8,86,0.00,,,0.00,WUHU216HW,2013-12-27 14:30:00,
2013-12-27 08:31:00,22.1,18.5,30.20,SW,225,2.4,3.8,86,0.00,,,0.00,WUHU216HW,2013-12-27 14:31:00,
2013-12-27 08:32:00,22.1,18.5,30.19,SW,225,2.4,3.8,86,0.00,,,0.00,WUHU216HW,2013-12-27 14:32:00,
2013-12-27 08:34:00,22.2,18.6,30.19,SW,225,2.4,2.6,86,0.00,,,0.00,WUHU216HW,2013-12-27 14:34:00,
2013-12-27 08:36:00,22.6,19.0,30.19,SSW,203,0.0,2.4,86,0.00,,,0.00,WUHU216HW,2013-12-27 14:36:00,
2013-12-27 08:37:00,22.8,19.4,30.19,South,180,2.0,2.4,87,0.00,,,0.00,WUHU216HW,2013-12-27 14:37:00,
2013-12-27 08:39:00,23.0,19.6,30.19,SW,225,2.4,2.4,87,0.00,,,0.00,WUHU216HW,2013-12-27 14:39:00,
2013-12-27 08:41:00,23.3,20.0,30.20,South,180,2.4,2.4,87,0.00,,,0.00,WUHU216HW,2013-12-27 14:41:00,
2013-12-27 08:42:00,23.5,20.0,30.20,SW,225,3.8,3.8,87,0.00,,,0.00,WUHU216HW,2013-12-27 14:42:00,
2013-12-27 08:44:00,23.5,20.2,30.20,SW,225,3.8,3.8,87,0.00,,,0.00,WUHU216HW,2013-12-27 14:44:00,
2013-12-27 08:46:00,23.7,20.3,30.20,SW,225,2.4,3.8,87,0.00,,,0.00,WUHU216HW,2013-12-27 14:46:00,
2013-12-27 08:47:00,23.7,20.3,30.20,SW,225,2.4,3.8,87,0.00,,,0.00,WUHU216HW,2013-12-27 14:47:00,
2013-12-27 08:49:00,24.2,20.9,30.20,SSW,203,2.4,3.8,87,0.00,,,0.00,WUHU216HW,2013-12-27 14:49:00,
2013-12-27 08:50:00,24.2,20.9,30.20,SSW,203,2.4,3.8,87,0.00,,,0.00,WUHU216HW,2013-12-27 14:50:00,
2013-12-27 08:51:00,24.2,20.9,30.20,SSW,203,2.4,3.8,87,0.00,,,0.00,WUHU216HW,2013-12-27 14:51:00,
2013-12-27 08:52:00,24.4,21.1,30.20,SSW,203,2.0,3.8,87,0.00,,,0.00,WUHU216HW,2013-12-27 14:52:00,
2013-12-27 08:53:00,24.4,21.1,30.20,SSW,203,2.0,3.8,87,0.00,,,0.00,WUHU216HW,2013-12-27 14:53:00,
2013-12-27 08:54:00,24.6,21.2,30.20,SW,225,2.9,2.9,87,0.00,,,0.00,WUHU216HW,2013-12-27 14:54:00,
2013-12-27 08:55:00,24.6,21.2,30.20,SW,225,2.9,2.9,87,0.00,,,0.00,WUHU216HW,2013-12-27 14:55:00,
2013-12-27 08:56:00,24.9,21.6,30.20,South,180,1.1,2.9,87,0.00,,,0.00,WUHU216HW,2013-12-27 14:56:00,
2013-12-27 08:57:00,24.9,21.6,30.20,South,180,1.1,2.9,87,0.00,,,0.00,WUHU216HW,2013-12-27 14:57:00,
2013-12-27 08:58:00,25.1,21.6,30.20,SSW,203,0.0,2.9,87,0.00,,,0.00,WUHU216HW,2013-12-27 14:58:00,
2013-12-27 08:59:00,25.5,22.1,30.20,SSW,203,0.0,2.9,87,0.00,,,0.00,WUHU216HW,2013-12-27 14:59:00,
2013-12-27 09:00:00,25.5,22.1,30.20,SSW,203,0.0,2.9,87,0.00,,,0.00,WUHU216HW,2013-12-27 15:00:00,
2013-12-27 09:01:00,25.5,22.1,30.20,SSW,203,2.0,2.9,87,0.00,,,0.00,WUHU216HW,2013-12-27 15:01:00,
2013-12-27 09:02:00,25.5,22.1,30.20,SSW,203,2.0,2.9,87,0.00,,,0.00,WUHU216HW,2013-12-27 15:02:00,
2013-12-27 09:03:00,25.5,22.1,30.20,SW,225,2.9,2.9,87,0.00,,,0.00,WUHU216HW,2013-12-27 15:03:00,
2013-12-27 09:05:00,25.7,22.3,30.20,SSW,203,3.3,3.3,87,0.00,,,0.00,WUHU216HW,2013-12-27 15:05:00,
2013-12-27 09:06:00,26.0,22.6,30.20,South,180,2.0,3.3,87,0.00,,,0.00,WUHU216HW,2013-12-27 15:06:00,
2013-12-27 09:07:00,26.0,22.6,30.20,South,180,2.0,3.3,87,0.00,,,0.00,WUHU216HW,2013-12-27 15:07:00,
2013-12-27 09:08:00,26.0,22.6,30.20,South,180,2.0,3.3,87,0.00,,,0.00,WUHU216HW,2013-12-27 15:08:00,
2013-12-27 09:10:00,26.2,22.8,30.21,SSW,203,6.4,6.4,87,0.00,,,0.00,WUHU216HW,2013-12-27 15:10:00,
2013-12-27 09:11:00,26.2,22.8,30.21,SSW,203,6.4,6.4,87,0.00,,,0.00,WUHU216HW,2013-12-27 15:11:00,
2013-12-27 09:12:00,26.2,22.8,30.21,SSW,203,6.4,6.4,87,0.00,,,0.00,WUHU216HW,2013-12-27 15:12:00,
2013-12-27 09:13:00,26.4,22.7,30.20,SSW,203,0.8,6.4,87,0.00,,,0.00,WUHU216HW,2013-12-27 15:13:00,
2013-12-27 09:15:00,26.4,22.7,30.20,SSW,203,2.9,6.4,86,0.00,,,0.00,WUHU216HW,2013-12-27 15:15:00,
2013-12-27 09:16:00,26.4,22.7,30.20,SSW,203,2.9,6.4,86,0.00,,,0.00,WUHU216HW,2013-12-27 15:16:00,
2013-12-27 09:17:00,26.4,22.7,30.20,SSW,203,2.9,6.4,86,0.00,,,0.00,WUHU216HW,2013-12-27 15:17:00,
2013-12-27 09:18:00,26.7,23.1,30.20,South,180,5.1,6.4,86,0.00,,,0.00,WUHU216HW,2013-12-27 15:18:00,
2013-12-27 09:19:00,26.7,23.1,30.20,South,180,5.1,6.4,86,0.00,,,0.00,WUHU216HW,2013-12-27 15:19:00,
2013-12-27 09:20:00,26.7,23.1,30.20,South,180,5.1,6.4,86,0.00,,,0.00,WUHU216HW,2013-12-27 15:20:00,
2013-12-27 09:21:00,26.9,23.2,30.19,South,180,4.6,5.1,86,0.00,,,0.00,WUHU216HW,2013-12-27 15:21:00,
2013-12-27 09:22:00,26.9,23.2,30.19,South,180,4.6,5.1,86,0.00,,,0.00,WUHU216HW,2013-12-27 15:22:00,
2013-12-27 09:24:00,27.1,23.4,30.19,South,180,4.9,5.1,86,0.00,,,0.00,WUHU216HW,2013-12-27 15:24:00,
2013-12-27 09:26:00,27.1,23.4,30.20,SSE,158,3.5,5.1,86,0.00,,,0.00,WUHU216HW,2013-12-27 15:26:00,
2013-12-27 09:27:00,27.1,23.4,30.19,SSW,203,5.8,5.8,86,0.00,,,0.00,WUHU216HW,2013-12-27 15:27:00,
2013-12-27 09:29:00,27.3,23.4,30.19,SSW,203,5.1,5.8,86,0.00,,,0.00,WUHU216HW,2013-12-27 15:29:00,
2013-12-27 09:30:00,27.3,23.4,30.19,SSW,203,5.1,5.8,86,0.00,,,0.00,WUHU216HW,2013-12-27 15:30:00,
2013-12-27 09:31:00,27.3,23.6,30.20,SSW,203,5.1,5.8,86,0.00,,,0.00,WUHU216HW,2013-12-27 15:31:00,
2013-12-27 09:32:00,27.3,23.6,30.20,SSW,203,5.1,5.8,86,0.00,,,0.00,WUHU216HW,2013-12-27 15:32:00,
2013-12-27 09:33:00,27.3,23.6,30.19,South,180,3.5,5.8,86,0.00,,,0.00,WUHU216HW,2013-12-27 15:33:00,
2013-12-27 09:34:00,27.6,24.0,30.19,SSE,158,3.8,5.8,86,0.00,,,0.00,WUHU216HW,2013-12-27 15:34:00,
2013-12-27 09:35:00,27.6,24.0,30.19,SSE,158,3.8,5.8,86,0.00,,,0.00,WUHU216HW,2013-12-27 15:35:00,
2013-12-27 09:36:00,27.6,23.7,30.19,SSW,203,1.5,5.8,85,0.00,,,0.00,WUHU216HW,2013-12-27 15:36:00,
2013-12-27 09:37:00,27.6,23.7,30.19,SSW,203,1.5,5.8,85,0.00,,,0.00,WUHU216HW,2013-12-27 15:37:00,
2013-12-27 09:38:00,27.6,23.7,30.19,SSW,203,1.5,5.8,85,0.00,,,0.00,WUHU216HW,2013-12-27 15:38:00,
2013-12-27 09:40:00,28.0,24.0,30.19,South,180,3.5,5.1,85,0.00,,,0.00,WUHU216HW,2013-12-27 15:40:00,
2013-12-27 09:42:00,28.0,24.0,30.19,SSW,203,6.7,6.7,85,0.00,,,0.00,WUHU216HW,2013-12-27 15:42:00,
2013-12-27 09:43:00,28.0,24.0,30.19,SSW,203,4.0,6.7,85,0.00,,,0.00,WUHU216HW,2013-12-27 15:43:00,
2013-12-27 09:45:00,28.2,24.2,30.19,SW,225,2.9,6.7,85,0.00,,,0.00,WUHU216HW,2013-12-27 15:45:00,
2013-12-27 09:47:00,28.2,24.2,30.19,SW,225,2.9,6.7,85,0.00,,,0.00,WUHU216HW,2013-12-27 15:47:00,
2013-12-27 09:48:00,28.5,24.6,30.19,SW,225,4.0,6.7,85,0.00,,,0.00,WUHU216HW,2013-12-27 15:48:00,
2013-12-27 09:50:00,28.7,24.8,30.19,SSW,203,4.6,6.7,85,0.00,,,0.00,WUHU216HW,2013-12-27 15:50:00,
2013-12-27 09:52:00,28.9,24.9,30.19,SSW,203,4.0,4.6,85,0.00,,,0.00,WUHU216HW,2013-12-27 15:52:00,
2013-12-27 09:53:00,28.9,24.9,30.19,SSW,203,4.0,4.6,85,0.00,,,0.00,WUHU216HW,2013-12-27 15:53:00,
2013-12-27 09:55:00,29.3,25.0,30.19,South,180,4.6,4.6,84,0.00,,,0.00,WUHU216HW,2013-12-27 15:55:00,
2013-12-27 09:56:00,29.3,25.0,30.19,South,180,4.6,4.6,84,0.00,,,0.00,WUHU216HW,2013-12-27 15:56:00,
2013-12-27 09:57:00,29.3,25.0,30.19,South,180,6.0,6.0,84,0.00,,,0.00,WUHU216HW,2013-12-27 15:57:00,
2013-12-27 09:58:00,29.4,25.2,30.19,South,180,6.0,6.0,84,0.00,,,0.00,WUHU216HW,2013-12-27 15:58:00,
2013-12-27 09:59:00,29.4,25.2,30.19,South,180,6.0,6.0,84,0.00,,,0.00,WUHU216HW,2013-12-27 15:59:00,
2013-12-27 10:01:00,29.8,25.3,30.19,SSW,203,6.7,6.7,83,0.00,,,0.00,WUHU216HW,2013-12-27 16:01:00,
2013-12-27 10:02:00,30.0,25.4,30.19,South,180,3.5,6.7,83,0.00,,,0.00,WUHU216HW,2013-12-27 16:02:00,
2013-12-27 10:04:00,30.0,25.4,30.19,South,180,3.5,6.7,83,0.00,,,0.00,WUHU216HW,2013-12-27 16:04:00,
2013-12-27 10:06:00,30.0,25.4,30.19,SW,225,4.9,6.7,83,0.00,,,0.00,WUHU216HW,2013-12-27 16:06:00,
2013-12-27 10:07:00,30.3,25.8,30.19,SSW,203,4.6,6.7,83,0.00,,,0.00,WUHU216HW,2013-12-27 16:07:00,
2013-12-27 10:09:00,30.3,25.8,30.19,SSW,203,4.6,6.7,83,0.00,,,0.00,WUHU216HW,2013-12-27 16:09:00,
2013-12-27 10:11:00,30.3,25.8,30.19,SSW,203,4.6,6.7,83,0.00,,,0.00,WUHU216HW,2013-12-27 16:11:00,
2013-12-27 10:12:00,30.3,25.8,30.19,SSW,203,4.6,4.9,83,0.00,,,0.00,WUHU216HW,2013-12-27 16:12:00,
2013-12-27 10:13:00,31.2,25.8,30.19,SW,225,4.0,4.9,83,0.00,,,0.00,WUHU216HW,2013-12-27 16:13:00,
2013-12-27 10:14:00,31.2,26.4,30.19,SW,225,4.0,4.9,82,0.00,,,0.00,WUHU216HW,2013-12-27 16:14:00,
2013-12-27 10:16:00,31.2,26.1,30.19,South,180,3.1,4.6,81,0.00,,,0.00,WUHU216HW,2013-12-27 16:16:00,
2013-12-27 10:17:00,31.2,26.1,30.19,South,180,3.1,4.6,81,0.00,,,0.00,WUHU216HW,2013-12-27 16:17:00,
2013-12-27 10:18:00,31.8,26.7,30.19,SSW,203,2.2,4.6,81,0.00,,,0.00,WUHU216HW,2013-12-27 16:18:00,
2013-12-27 10:19:00,31.8,26.7,30.19,SSW,203,2.2,4.6,81,0.00,,,0.00,WUHU216HW,2013-12-27 16:19:00,
2013-12-27 10:20:00,32.1,27.0,30.19,South,180,2.4,4.6,81,0.00,,,0.00,WUHU216HW,2013-12-27 16:20:00,
2013-12-27 10:22:00,32.3,27.2,30.19,SSW,203,4.9,4.9,81,0.00,,,0.00,WUHU216HW,2013-12-27 16:22:00,
2013-12-27 10:23:00,32.3,27.2,30.18,SSW,203,4.9,4.9,81,0.00,,,0.00,WUHU216HW,2013-12-27 16:23:00,
2013-12-27 10:24:00,32.7,27.5,30.18,South,180,4.0,4.9,81,0.00,,,0.00,WUHU216HW,2013-12-27 16:24:00,
2013-12-27 10:25:00,32.7,27.5,30.18,South,180,4.0,4.9,81,0.00,,,0.00,WUHU216HW,2013-12-27 16:25:00,
2013-12-27 10:26:00,32.7,27.5,30.18,South,180,4.0,4.9,81,0.00,,,0.00,WUHU216HW,2013-12-27 16:26:00,
2013-12-27 10:27:00,32.9,27.4,30.18,South,180,4.0,4.9,80,0.00,,,0.00,WUHU216HW,2013-12-27 16:27:00,
2013-12-27 10:28:00,33.2,27.4,30.18,South,180,5.1,5.1,80,0.00,,,0.00,WUHU216HW,2013-12-27 16:28:00,
2013-12-27 10:30:00,33.6,28.0,30.18,South,180,3.8,5.1,80,0.00,,,0.00,WUHU216HW,2013-12-27 16:30:00,
2013-12-27 10:31:00,33.6,28.0,30.18,South,180,3.8,5.1,80,0.00,,,0.00,WUHU216HW,2013-12-27 16:31:00,
2013-12-27 10:33:00,33.6,28.0,30.17,South,180,3.8,5.1,80,0.00,,,0.00,WUHU216HW,2013-12-27 16:33:00,
2013-12-27 10:35:00,33.9,28.4,30.17,SSW,203,6.2,6.2,80,0.00,,,0.00,WUHU216HW,2013-12-27 16:35:00,
2013-12-27 10:36:00,33.9,28.4,30.17,SSW,203,6.2,6.2,80,0.00,,,0.00,WUHU216HW,2013-12-27 16:36:00,
2013-12-27 10:38:00,34.3,28.4,30.17,SSW,203,5.8,6.2,79,0.00,,,0.00,WUHU216HW,2013-12-27 16:38:00,
2013-12-27 10:41:00,34.5,28.2,30.17,SSW,203,4.6,6.2,78,0.00,,,0.00,WUHU216HW,2013-12-27 16:41:00,
2013-12-27 10:43:00,34.8,28.6,30.17,South,180,5.8,6.2,78,0.00,,,0.00,WUHU216HW,2013-12-27 16:43:00,
2013-12-27 10:44:00,34.8,28.6,30.17,South,180,5.8,6.2,78,0.00,,,0.00,WUHU216HW,2013-12-27 16:44:00,
2013-12-27 10:46:00,35.2,29.0,30.17,SSW,203,6.9,6.9,78,0.00,,,0.00,WUHU216HW,2013-12-27 16:46:00,
2013-12-27 10:47:00,35.2,29.0,30.17,SSW,203,6.9,6.9,78,0.00,,,0.00,WUHU216HW,2013-12-27 16:47:00,
2013-12-27 10:48:00,35.2,28.6,30.17,South,180,6.0,6.9,77,0.00,,,0.00,WUHU216HW,2013-12-27 16:48:00,
2013-12-27 10:49:00,35.2,28.6,30.17,South,180,6.0,6.9,77,0.00,,,0.00,WUHU216HW,2013-12-27 16:49:00,
2013-12-27 10:52:00,35.7,29.2,30.17,South,180,7.6,7.6,77,0.00,,,0.00,WUHU216HW,2013-12-27 16:52:00,
2013-12-27 10:54:00,35.9,29.4,30.16,SSW,203,9.1,9.1,77,0.00,,,0.00,WUHU216HW,2013-12-27 16:54:00,
2013-12-27 10:55:00,36.1,29.2,30.17,SW,225,6.4,9.1,76,0.00,,,0.00,WUHU216HW,2013-12-27 16:55:00,
2013-12-27 10:57:00,36.1,29.2,30.17,SW,225,6.4,9.1,76,0.00,,,0.00,WUHU216HW,2013-12-27 16:57:00,
2013-12-27 10:59:00,36.3,29.4,30.16,SSW,203,6.7,9.1,76,0.00,,,0.00,WUHU216HW,2013-12-27 16:59:00,
2013-12-27 11:00:00,36.3,29.4,30.17,SSW,203,6.7,9.1,76,0.00,,,0.00,WUHU216HW,2013-12-27 17:00:00,
2013-12-27 11:02:00,36.5,29.6,30.17,SSW,203,4.6,9.1,76,0.00,,,0.00,WUHU216HW,2013-12-27 17:02:00,
2013-12-27 11:04:00,36.8,29.9,30.16,SSW,203,3.8,9.1,76,0.00,,,0.00,WUHU216HW,2013-12-27 17:04:00,
2013-12-27 11:05:00,37.0,30.1,30.16,SSW,203,5.8,6.7,76,0.00,,,0.00,WUHU216HW,2013-12-27 17:05:00,
2013-12-27 11:06:00,37.0,30.1,30.16,SSW,203,5.8,6.7,76,0.00,,,0.00,WUHU216HW,2013-12-27 17:06:00,
2013-12-27 11:07:00,37.2,30.0,30.16,SSW,203,4.0,6.7,75,0.00,,,0.00,WUHU216HW,2013-12-27 17:07:00,
2013-12-27 11:08:00,37.2,30.0,30.16,SSW,203,4.0,6.7,75,0.00,,,0.00,WUHU216HW,2013-12-27 17:08:00,
2013-12-27 11:09:00,37.7,30.5,30.16,SSW,203,4.0,6.7,75,0.00,,,0.00,WUHU216HW,2013-12-27 17:09:00,
2013-12-27 11:10:00,37.7,30.5,30.16,SSW,203,5.3,5.8,75,0.00,,,0.00,WUHU216HW,2013-12-27 17:10:00,
2013-12-27 11:11:00,37.9,30.7,30.16,SSW,203,6.0,6.0,75,0.00,,,0.00,WUHU216HW,2013-12-27 17:11:00,
2013-12-27 11:12:00,37.9,30.7,30.16,SSW,203,6.0,6.0,75,0.00,,,0.00,WUHU216HW,2013-12-27 17:12:00,
2013-12-27 11:13:00,38.3,31.0,30.16,South,180,6.9,6.9,75,0.00,,,0.00,WUHU216HW,2013-12-27 17:13:00,
2013-12-27 11:14:00,38.3,31.0,30.16,South,180,6.9,6.9,75,0.00,,,0.00,WUHU216HW,2013-12-27 17:14:00,
2013-12-27 11:15:00,38.3,31.0,30.16,South,180,8.2,8.2,75,0.00,,,0.00,WUHU216HW,2013-12-27 17:15:00,
2013-12-27 11:16:00,38.6,31.0,30.16,South,180,8.2,8.2,74,0.00,,,0.00,WUHU216HW,2013-12-27 17:16:00,
2013-12-27 11:17:00,38.6,31.0,30.16,South,180,8.2,8.2,74,0.00,,,0.00,WUHU216HW,2013-12-27 17:17:00,
2013-12-27 11:18:00,38.8,31.2,30.16,South,180,5.1,8.2,74,0.00,,,0.00,WUHU216HW,2013-12-27 17:18:00,
2013-12-27 11:19:00,38.8,31.3,30.15,South,180,5.1,8.2,74,0.00,,,0.00,WUHU216HW,2013-12-27 17:19:00,
2013-12-27 11:20:00,38.8,31.3,30.15,South,180,5.1,8.2,74,0.00,,,0.00,WUHU216HW,2013-12-27 17:20:00,
2013-12-27 11:22:00,39.3,31.3,30.15,South,180,5.1,8.2,73,0.00,,,0.00,WUHU216HW,2013-12-27 17:22:00,
2013-12-27 11:23:00,39.5,31.5,30.15,SSW,203,6.2,8.2,73,0.00,,,0.00,WUHU216HW,2013-12-27 17:23:00,
2013-12-27 11:24:00,39.5,31.5,30.15,SSW,203,6.2,8.2,73,0.00,,,0.00,WUHU216HW,2013-12-27 17:24:00,
2013-12-27 11:25:00,39.5,31.5,30.15,SSW,203,6.2,8.2,73,0.00,,,0.00,WUHU216HW,2013-12-27 17:25:00,
2013-12-27 11:27:00,39.7,31.4,30.15,South,180,5.8,6.2,72,0.00,,,0.00,WUHU216HW,2013-12-27 17:27:00,
2013-12-27 11:28:00,39.9,31.5,30.15,SSW,203,7.1,7.1,72,0.00,,,0.00,WUHU216HW,2013-12-27 17:28:00,
2013-12-27 11:29:00,39.9,31.5,30.15,SSW,203,7.1,7.1,72,0.00,,,0.00,WUHU216HW,2013-12-27 17:29:00,
2013-12-27 11:30:00,39.9,31.5,30.15,SSW,203,7.1,7.1,72,0.00,,,0.00,WUHU216HW,2013-12-27 17:30:00,
2013-12-27 11:32:00,40.4,31.7,30.15,SSW,203,4.4,7.1,71,0.00,,,0.00,WUHU216HW,2013-12-27 17:32:00,
2013-12-27 11:33:00,40.4,31.7,30.15,SSW,203,4.4,7.1,71,0.00,,,0.00,WUHU216HW,2013-12-27 17:33:00,
2013-12-27 11:34:00,40.8,32.1,30.15,South,180,2.6,7.1,71,0.00,,,0.00,WUHU216HW,2013-12-27 17:34:00,
2013-12-27 11:36:00,40.8,32.1,30.15,South,180,2.6,7.1,71,0.00,,,0.00,WUHU216HW,2013-12-27 17:36:00,
2013-12-27 11:38:00,41.1,32.5,30.15,WSW,248,6.0,7.1,71,0.00,,,0.00,WUHU216HW,2013-12-27 17:38:00,
2013-12-27 11:40:00,41.3,32.3,30.14,SW,225,3.8,6.0,70,0.00,,,0.00,WUHU216HW,2013-12-27 17:40:00,
2013-12-27 11:41:00,41.7,32.7,30.14,South,180,6.0,6.0,70,0.00,,,0.00,WUHU216HW,2013-12-27 17:41:00,
2013-12-27 11:43:00,41.7,32.6,30.14,SSW,203,7.3,7.3,69,0.00,,,0.00,WUHU216HW,2013-12-27 17:43:00,
2013-12-27 11:44:00,42.0,32.6,30.14,SSW,203,7.3,7.3,69,0.00,,,0.00,WUHU216HW,2013-12-27 17:44:00,
2013-12-27 11:45:00,42.0,32.8,30.14,SSW,203,7.3,7.3,69,0.00,,,0.00,WUHU216HW,2013-12-27 17:45:00,
2013-12-27 11:46:00,42.2,32.8,30.14,SSW,203,5.1,7.3,69,0.00,,,0.00,WUHU216HW,2013-12-27 17:46:00,
2013-12-27 11:48:00,42.6,33.2,30.14,SSW,203,3.5,7.3,69,0.00,,,0.00,WUHU216HW,2013-12-27 17:48:00,
2013-12-27 11:49:00,42.6,33.2,30.14,SSW,203,3.5,7.3,69,0.00,,,0.00,WUHU216HW,2013-12-27 17:49:00,
2013-12-27 11:50:00,42.9,33.1,30.13,SSW,203,6.7,7.3,68,0.00,,,0.00,WUHU216HW,2013-12-27 17:50:00,
2013-12-27 11:51:00,42.9,33.1,30.13,SSW,203,6.7,7.3,68,0.00,,,0.00,WUHU216HW,2013-12-27 17:51:00,
2013-12-27 11:52:00,43.3,33.4,30.14,SSW,203,5.3,7.3,68,0.00,,,0.00,WUHU216HW,2013-12-27 17:52:00,
2013-12-27 11:54:00,43.5,33.2,30.14,SSW,203,7.6,7.6,67,0.00,,,0.00,WUHU216HW,2013-12-27 17:54:00,
2013-12-27 11:55:00,43.8,33.6,30.13,South,180,3.8,7.6,67,0.00,,,0.00,WUHU216HW,2013-12-27 17:55:00,
2013-12-27 11:56:00,43.8,33.6,30.13,South,180,3.8,7.6,67,0.00,,,0.00,WUHU216HW,2013-12-27 17:56:00,
2013-12-27 11:57:00,44.2,33.6,30.14,South,180,3.8,7.6,67,0.00,,,0.00,WUHU216HW,2013-12-27 17:57:00,
2013-12-27 11:59:00,44.2,33.5,30.14,South,180,5.1,7.6,66,0.00,,,0.00,WUHU216HW,2013-12-27 17:59:00,
2013-12-27 12:00:00,44.4,33.7,30.13,SW,225,4.6,7.6,66,0.00,,,0.00,WUHU216HW,2013-12-27 18:00:00,
2013-12-27 12:01:00,44.4,33.7,30.13,SW,225,4.6,7.6,66,0.00,,,0.00,WUHU216HW,2013-12-27 18:01:00,
2013-12-27 12:03:00,44.9,33.8,30.13,South,180,7.6,7.6,65,0.00,,,0.00,WUHU216HW,2013-12-27 18:03:00,
2013-12-27 12:04:00,44.9,33.8,30.13,South,180,7.6,7.6,65,0.00,,,0.00,WUHU216HW,2013-12-27 18:04:00,
2013-12-27 12:05:00,45.1,34.0,30.13,South,180,9.6,9.6,65,0.00,,,0.00,WUHU216HW,2013-12-27 18:05:00,
2013-12-27 12:06:00,45.1,34.0,30.13,South,180,9.6,9.6,65,0.00,,,0.00,WUHU216HW,2013-12-27 18:06:00,
2013-12-27 12:08:00,45.5,34.3,30.13,SSW,203,8.7,9.6,65,0.00,,,0.00,WUHU216HW,2013-12-27 18:08:00,
2013-12-27 12:09:00,45.6,34.1,30.13,South,180,3.5,9.6,64,0.00,,,0.00,WUHU216HW,2013-12-27 18:09:00,
2013-12-27 12:11:00,46.0,34.1,30.13,South,180,3.5,9.6,64,0.00,,,0.00,WUHU216HW,2013-12-27 18:11:00,
2013-12-27 12:12:00,46.0,34.5,30.13,SSW,203,9.1,9.6,64,0.00,,,0.00,WUHU216HW,2013-12-27 18:12:00,
2013-12-27 12:14:00,46.2,34.2,30.13,SSW,203,6.2,9.6,63,0.00,,,0.00,WUHU216HW,2013-12-27 18:14:00,
2013-12-27 12:16:00,46.2,34.2,30.13,South,180,8.7,9.1,63,0.00,,,0.00,WUHU216HW,2013-12-27 18:16:00,
2013-12-27 12:17:00,46.2,34.2,30.13,South,180,8.7,9.1,63,0.00,,,0.00,WUHU216HW,2013-12-27 18:17:00,
2013-12-27 12:19:00,46.5,34.2,30.13,SW,225,8.5,9.1,62,0.00,,,0.00,WUHU216HW,2013-12-27 18:19:00,
2013-12-27 12:21:00,46.9,34.5,30.13,SSW,203,8.0,9.1,62,0.00,,,0.00,WUHU216HW,2013-12-27 18:21:00,
2013-12-27 12:22:00,47.1,34.7,30.13,SW,225,3.1,8.7,62,0.00,,,0.00,WUHU216HW,2013-12-27 18:22:00,
2013-12-27 12:24:00,47.3,34.9,30.12,SW,225,5.1,8.7,62,0.00,,,0.00,WUHU216HW,2013-12-27 18:24:00,
2013-12-27 12:25:00,47.3,34.9,30.12,SW,225,5.1,8.7,62,0.00,,,0.00,WUHU216HW,2013-12-27 18:25:00,
2013-12-27 12:26:00,47.4,34.7,30.12,SSW,203,11.6,11.6,61,0.00,,,0.00,WUHU216HW,2013-12-27 18:26:00,
2013-12-27 12:27:00,47.8,34.7,30.12,SSE,158,4.0,11.6,61,0.00,,,0.00,WUHU216HW,2013-12-27 18:27:00,
2013-12-27 12:29:00,47.8,34.7,30.12,WSW,248,3.8,11.6,60,0.00,,,0.00,WUHU216HW,2013-12-27 18:29:00,
2013-12-27 12:31:00,48.0,34.8,30.12,WSW,248,3.8,11.6,60,0.00,,,0.00,WUHU216HW,2013-12-27 18:31:00,
2013-12-27 12:32:00,48.0,34.8,30.12,WSW,248,3.8,11.6,60,0.00,,,0.00,WUHU216HW,2013-12-27 18:32:00,
2013-12-27 12:35:00,48.5,34.9,30.12,SW,225,6.9,11.6,59,0.00,,,0.00,WUHU216HW,2013-12-27 18:35:00,
2013-12-27 12:36:00,48.7,35.0,30.12,SW,225,8.2,11.6,59,0.00,,,0.00,WUHU216HW,2013-12-27 18:36:00,
2013-12-27 12:37:00,48.7,35.0,30.12,SW,225,8.2,8.2,59,0.00,,,0.00,WUHU216HW,2013-12-27 18:37:00,
2013-12-27 12:38:00,48.7,35.0,30.12,SW,225,8.2,8.2,59,0.00,,,0.00,WUHU216HW,2013-12-27 18:38:00,
2013-12-27 12:40:00,48.9,34.7,30.12,SW,225,3.5,8.2,58,0.00,,,0.00,WUHU216HW,2013-12-27 18:40:00,
2013-12-27 12:41:00,49.1,34.9,30.12,South,180,5.1,8.2,58,0.00,,,0.00,WUHU216HW,2013-12-27 18:41:00,
2013-12-27 12:42:00,49.1,34.9,30.12,South,180,5.1,8.2,58,0.00,,,0.00,WUHU216HW,2013-12-27 18:42:00,
2013-12-27 12:43:00,49.1,34.4,30.12,SSW,203,4.2,8.2,57,0.00,,,0.00,WUHU216HW,2013-12-27 18:43:00,
2013-12-27 12:45:00,49.2,34.6,30.12,SSW,203,12.9,12.9,57,0.00,,,0.00,WUHU216HW,2013-12-27 18:45:00,
2013-12-27 12:47:00,49.2,34.6,30.11,SSW,203,12.9,12.9,57,0.00,,,0.00,WUHU216HW,2013-12-27 18:47:00,
2013-12-27 12:48:00,49.6,34.5,30.11,SSW,203,5.5,12.9,56,0.00,,,0.00,WUHU216HW,2013-12-27 18:48:00,
2013-12-27 12:51:00,49.6,34.5,30.12,SW,225,9.3,12.9,56,0.00,,,0.00,WUHU216HW,2013-12-27 18:51:00,
2013-12-27 12:52:00,49.8,34.2,30.11,SSW,203,2.2,12.9,55,0.00,,,0.00,WUHU216HW,2013-12-27 18:52:00,
2013-12-27 12:53:00,49.8,34.2,30.11,SSW,203,2.2,12.9,55,0.00,,,0.00,WUHU216HW,2013-12-27 18:53:00,
2013-12-27 12:56:00,50.0,34.4,30.11,SSE,158,5.3,12.9,55,0.00,,,0.00,WUHU216HW,2013-12-27 18:56:00,
2013-12-27 12:57:00,50.0,34.4,30.11,SSE,158,5.3,9.3,55,0.00,,,0.00,WUHU216HW,2013-12-27 18:57:00,
2013-12-27 12:58:00,50.0,34.4,30.11,SSE,158,5.3,9.3,55,0.00,,,0.00,WUHU216HW,2013-12-27 18:58:00,
2013-12-27 12:59:00,50.1,34.5,30.10,SSW,203,5.5,9.3,55,0.00,,,0.00,WUHU216HW,2013-12-27 18:59:00,
2013-12-27 13:01:00,50.3,34.3,30.10,SW,225,12.7,12.7,54,0.00,,,0.00,WUHU216HW,2013-12-27 19:01:00,
2013-12-27 13:02:00,50.3,34.3,30.10,SW,225,12.7,12.7,54,0.00,,,0.00,WUHU216HW,2013-12-27 19:02:00,
2013-12-27 13:03:00,50.3,34.3,30.10,South,180,6.2,12.7,54,0.00,,,0.00,WUHU216HW,2013-12-27 19:03:00,
2013-12-27 13:04:00,50.3,34.3,30.10,South,180,6.2,12.7,54,0.00,,,0.00,WUHU216HW,2013-12-27 19:04:00,
2013-12-27 13:06:00,50.3,33.8,30.10,SSW,203,8.9,12.7,53,0.00,,,0.00,WUHU216HW,2013-12-27 19:06:00,
2013-12-27 13:07:00,50.3,33.8,30.10,SSW,203,8.9,12.7,53,0.00,,,0.00,WUHU216HW,2013-12-27 19:07:00,
2013-12-27 13:09:00,50.3,33.8,30.10,South,180,3.8,12.7,53,0.00,,,0.00,WUHU216HW,2013-12-27 19:09:00,
2013-12-27 13:10:00,50.3,33.8,30.10,South,180,3.8,12.7,53,0.00,,,0.00,WUHU216HW,2013-12-27 19:10:00,
2013-12-27 13:12:00,50.3,33.8,30.09,SSW,203,15.4,15.4,53,0.00,,,0.00,WUHU216HW,2013-12-27 19:12:00,
2013-12-27 13:14:00,50.5,34.0,30.09,SSW,203,9.1,15.4,53,0.00,,,0.00,WUHU216HW,2013-12-27 19:14:00,
2013-12-27 13:15:00,50.5,34.0,30.10,SSW,203,9.1,15.4,53,0.00,,,0.00,WUHU216HW,2013-12-27 19:15:00,
2013-12-27 13:17:00,50.5,33.5,30.09,SSW,203,5.5,15.4,52,0.00,,,0.00,WUHU216HW,2013-12-27 19:17:00,
2013-12-27 13:20:00,50.5,33.5,30.09,SSW,203,8.5,15.4,52,0.00,,,0.00,WUHU216HW,2013-12-27 19:20:00,
2013-12-27 13:22:00,50.7,33.7,30.09,SSW,203,6.7,9.1,52,0.00,,,0.00,WUHU216HW,2013-12-27 19:22:00,
2013-12-27 13:25:00,50.7,33.7,30.09,SSE,158,5.5,8.5,52,0.00,,,0.00,WUHU216HW,2013-12-27 19:25:00,
2013-12-27 13:28:00,50.7,33.7,30.09,SW,225,13.1,13.1,52,0.00,,,0.00,WUHU216HW,2013-12-27 19:28:00,
2013-12-27 13:30:00,50.9,33.4,30.09,SW,225,12.9,13.1,51,0.00,,,0.00,WUHU216HW,2013-12-27 19:30:00,
2013-12-27 13:31:00,50.9,33.4,30.09,WSW,248,7.1,13.1,51,0.00,,,0.00,WUHU216HW,2013-12-27 19:31:00,
2013-12-27 13:33:00,50.9,33.4,30.09,SSW,203,11.1,13.1,51,0.00,,,0.00,WUHU216HW,2013-12-27 19:33:00,
2013-12-27 13:35:00,50.9,33.4,30.09,SW,225,16.3,16.3,51,0.00,,,0.00,WUHU216HW,2013-12-27 19:35:00,
2013-12-27 13:36:00,51.0,33.6,30.09,SW,225,10.2,16.3,51,0.00,,,0.00,WUHU216HW,2013-12-27 19:36:00,
2013-12-27 13:37:00,51.0,33.6,30.09,SW,225,10.2,16.3,51,0.00,,,0.00,WUHU216HW,2013-12-27 19:37:00,
2013-12-27 13:38:00,51.0,33.6,30.09,SW,225,10.2,16.3,51,0.00,,,0.00,WUHU216HW,2013-12-27 19:38:00,
2013-12-27 13:39:00,51.0,33.6,30.09,SSW,203,12.7,16.3,51,0.00,,,0.00,WUHU216HW,2013-12-27 19:39:00,
2013-12-27 13:40:00,51.0,33.6,30.09,SSW,203,12.7,16.3,51,0.00,,,0.00,WUHU216HW,2013-12-27 19:40:00,
2013-12-27 13:41:00,51.2,33.3,30.08,SW,225,11.4,16.3,50,0.00,,,0.00,WUHU216HW,2013-12-27 19:41:00,
2013-12-27 13:42:00,51.2,33.4,30.08,SSW,203,6.9,16.3,50,0.00,,,0.00,WUHU216HW,2013-12-27 19:42:00,
2013-12-27 13:44:00,51.4,33.4,30.08,SSW,203,6.9,16.3,50,0.00,,,0.00,WUHU216HW,2013-12-27 19:44:00,
2013-12-27 13:45:00,51.4,33.4,30.08,SSW,203,6.9,16.3,50,0.00,,,0.00,WUHU216HW,2013-12-27 19:45:00,
2013-12-27 13:46:00,51.4,33.4,30.08,SSW,203,9.8,12.7,50,0.00,,,0.00,WUHU216HW,2013-12-27 19:46:00,
2013-12-27 13:48:00,51.4,33.4,30.08,SW,225,13.1,13.1,50,0.00,,,0.00,WUHU216HW,2013-12-27 19:48:00,
2013-12-27 13:49:00,51.4,33.4,30.08,SW,225,13.1,13.1,50,0.00,,,0.00,WUHU216HW,2013-12-27 19:49:00,
2013-12-27 13:50:00,51.4,33.4,30.08,South,180,8.7,13.1,50,0.00,,,0.00,WUHU216HW,2013-12-27 19:50:00,
2013-12-27 13:51:00,51.4,33.4,30.08,South,180,8.7,13.1,50,0.00,,,0.00,WUHU216HW,2013-12-27 19:51:00,
2013-12-27 13:52:00,51.4,33.4,30.08,SSW,203,7.1,13.1,50,0.00,,,0.00,WUHU216HW,2013-12-27 19:52:00,
2013-12-27 13:54:00,51.4,33.4,30.08,SSW,203,4.9,13.1,50,0.00,,,0.00,WUHU216HW,2013-12-27 19:54:00,
2013-12-27 13:55:00,51.6,33.6,30.08,SSW,203,10.2,13.1,50,0.00,,,0.00,WUHU216HW,2013-12-27 19:55:00,
2013-12-27 13:56:00,51.6,33.6,30.08,SSW,203,10.2,13.1,50,0.00,,,0.00,WUHU216HW,2013-12-27 19:56:00,
2013-12-27 13:58:00,51.6,33.0,30.08,SW,225,8.9,13.1,49,0.00,,,0.00,WUHU216HW,2013-12-27 19:58:00,
2013-12-27 13:59:00,51.6,33.0,30.08,SW,225,8.9,10.2,49,0.00,,,0.00,WUHU216HW,2013-12-27 19:59:00,
2013-12-27 14:00:00,51.6,33.0,30.08,SW,225,7.6,10.2,49,0.00,,,0.00,WUHU216HW,2013-12-27 20:00:00,
2013-12-27 14:01:00,51.6,33.0,30.08,SW,225,7.6,10.2,49,0.00,,,0.00,WUHU216HW,2013-12-27 20:01:00,
2013-12-27 14:03:00,51.6,33.0,30.08,SW,225,4.6,10.2,49,0.00,,,0.00,WUHU216HW,2013-12-27 20:03:00,
2013-12-27 14:04:00,51.6,33.0,30.08,SW,225,4.6,10.2,49,0.00,,,0.00,WUHU216HW,2013-12-27 20:04:00,
2013-12-27 14:05:00,51.6,33.0,30.07,SSW,203,9.1,10.2,49,0.00,,,0.00,WUHU216HW,2013-12-27 20:05:00,
2013-12-27 14:06:00,51.6,33.0,30.07,SSW,203,9.1,10.2,49,0.00,,,0.00,WUHU216HW,2013-12-27 20:06:00,
2013-12-27 14:08:00,51.8,33.2,30.07,South,180,7.6,9.1,49,0.00,,,0.00,WUHU216HW,2013-12-27 20:08:00,
2013-12-27 14:09:00,51.8,33.2,30.07,South,180,7.6,9.1,49,0.00,,,0.00,WUHU216HW,2013-12-27 20:09:00,
2013-12-27 14:10:00,51.8,33.2,30.07,South,180,7.6,9.1,49,0.00,,,0.00,WUHU216HW,2013-12-27 20:10:00,
2013-12-27 14:11:00,51.8,33.2,30.07,SW,225,4.0,9.1,49,0.00,,,0.00,WUHU216HW,2013-12-27 20:11:00,
2013-12-27 14:14:00,51.9,33.4,30.07,SW,225,6.9,9.1,49,0.00,,,0.00,WUHU216HW,2013-12-27 20:14:00,
2013-12-27 14:15:00,51.9,32.8,30.07,SW,225,18.1,18.1,49,0.00,,,0.00,WUHU216HW,2013-12-27 20:15:00,
2013-12-27 14:16:00,51.9,32.8,30.07,SSW,203,6.2,18.1,48,0.00,,,0.00,WUHU216HW,2013-12-27 20:16:00,
2013-12-27 14:19:00,51.9,32.8,30.07,SSW,203,6.2,18.1,48,0.00,,,0.00,WUHU216HW,2013-12-27 20:19:00,
2013-12-27 14:20:00,51.9,32.8,30.07,West,270,2.2,18.1,48,0.00,,,0.00,WUHU216HW,2013-12-27 20:20:00,
2013-12-27 14:21:00,51.9,32.8,30.07,West,270,2.2,18.1,48,0.00,,,0.00,WUHU216HW,2013-12-27 20:21:00,
2013-12-27 14:22:00,51.9,32.8,30.07,SSW,203,10.9,18.1,48,0.00,,,0.00,WUHU216HW,2013-12-27 20:22:00,
2013-12-27 14:24:00,51.9,32.8,30.07,WSW,248,4.0,18.1,48,0.00,,,0.00,WUHU216HW,2013-12-27 20:24:00,
2013-12-27 14:25:00,51.9,32.8,30.07,WSW,248,4.0,18.1,48,0.00,,,0.00,WUHU216HW,2013-12-27 20:25:00,
2013-12-27 14:26:00,52.1,33.0,30.07,SSW,203,16.5,16.5,48,0.00,,,0.00,WUHU216HW,2013-12-27 20:26:00,
2013-12-27 14:27:00,52.1,33.0,30.07,SSW,203,16.5,16.5,48,0.00,,,0.00,WUHU216HW,2013-12-27 20:27:00,
2013-12-27 14:29:00,51.9,32.8,30.07,WSW,248,6.7,16.5,48,0.00,,,0.00,WUHU216HW,2013-12-27 20:29:00,
2013-12-27 14:30:00,51.9,32.8,30.07,WSW,248,6.7,16.5,48,0.00,,,0.00,WUHU216HW,2013-12-27 20:30:00,
2013-12-27 14:31:00,51.9,32.8,30.07,SSW,203,8.5,16.5,48,0.00,,,0.00,WUHU216HW,2013-12-27 20:31:00,
2013-12-27 14:32:00,51.9,32.8,30.07,SSW,203,8.5,16.5,48,0.00,,,0.00,WUHU216HW,2013-12-27 20:32:00,
2013-12-27 14:34:00,51.9,32.8,30.06,SW,225,9.6,16.5,48,0.00,,,0.00,WUHU216HW,2013-12-27 20:34:00,
2013-12-27 14:36:00,51.9,32.8,30.06,SW,225,9.6,16.5,48,0.00,,,0.00,WUHU216HW,2013-12-27 20:36:00,
2013-12-27 14:37:00,51.9,32.8,30.07,SW,225,11.6,14.3,48,0.00,,,0.00,WUHU216HW,2013-12-27 20:37:00,
2013-12-27 14:39:00,51.9,32.8,30.06,SSW,203,6.9,11.6,48,0.00,,,0.00,WUHU216HW,2013-12-27 20:39:00,
2013-12-27 14:41:00,51.9,32.8,30.06,SSW,203,3.8,11.6,48,0.00,,,0.00,WUHU216HW,2013-12-27 20:41:00,
2013-12-27 14:42:00,51.9,32.8,30.06,SSW,203,3.8,11.6,48,0.00,,,0.00,WUHU216HW,2013-12-27 20:42:00,
2013-12-27 14:43:00,51.9,32.8,30.06,SSW,203,10.2,11.6,48,0.00,,,0.00,WUHU216HW,2013-12-27 20:43:00,
2013-12-27 14:44:00,51.9,32.2,30.06,SW,225,14.9,14.9,47,0.00,,,0.00,WUHU216HW,2013-12-27 20:44:00,
2013-12-27 14:46:00,51.9,32.2,30.06,SSE,158,14.9,14.9,47,0.00,,,0.00,WUHU216HW,2013-12-27 20:46:00,
2013-12-27 14:47:00,51.8,32.1,30.06,SSE,158,14.9,14.9,47,0.00,,,0.00,WUHU216HW,2013-12-27 20:47:00,
2013-12-27 14:48:00,51.8,32.1,30.06,SSE,158,14.9,14.9,47,0.00,,,0.00,WUHU216HW,2013-12-27 20:48:00,
2013-12-27 14:50:00,51.8,32.6,30.06,SSW,203,7.3,14.9,48,0.00,,,0.00,WUHU216HW,2013-12-27 20:50:00,
2013-12-27 14:52:00,51.6,32.5,30.06,SSW,203,8.7,14.9,48,0.00,,,0.00,WUHU216HW,2013-12-27 20:52:00,
2013-12-27 14:53:00,51.6,32.5,30.06,SSW,203,8.7,14.9,48,0.00,,,0.00,WUHU216HW,2013-12-27 20:53:00,
2013-12-27 14:55:00,51.6,31.9,30.06,SSW,203,8.5,14.9,47,0.00,,,0.00,WUHU216HW,2013-12-27 20:55:00,
2013-12-27 14:57:00,51.6,31.9,30.06,SW,225,16.7,16.7,47,0.00,,,0.00,WUHU216HW,2013-12-27 20:57:00,
2013-12-27 14:58:00,51.6,31.9,30.06,SW,225,16.7,16.7,47,0.00,,,0.00,WUHU216HW,2013-12-27 20:58:00,
2013-12-27 14:59:00,51.6,31.9,30.06,SSW,203,20.5,20.5,47,0.00,,,0.00,WUHU216HW,2013-12-27 20:59:00,
2013-12-27 15:00:00,51.4,31.9,30.06,SSW,203,9.6,20.5,47,0.00,,,0.00,WUHU216HW,2013-12-27 21:00:00,
2013-12-27 15:02:00,51.4,32.3,30.06,SSW,203,7.3,20.5,48,0.00,,,0.00,WUHU216HW,2013-12-27 21:02:00,
2013-12-27 15:03:00,51.4,32.3,30.06,SSW,203,7.3,20.5,48,0.00,,,0.00,WUHU216HW,2013-12-27 21:03:00,
2013-12-27 15:04:00,51.2,32.1,30.06,SSW,203,12.9,20.5,48,0.00,,,0.00,WUHU216HW,2013-12-27 21:04:00,
2013-12-27 15:05:00,51.2,32.1,30.06,SSW,203,12.9,20.5,48,0.00,,,0.00,WUHU216HW,2013-12-27 21:05:00,
2013-12-27 15:08:00,51.2,32.1,30.06,South,180,10.7,20.5,48,0.00,,,0.00,WUHU216HW,2013-12-27 21:08:00,
2013-12-27 15:10:00,51.2,32.1,30.06,SSW,203,5.3,12.9,48,0.00,,,0.00,WUHU216HW,2013-12-27 21:10:00,
2013-12-27 15:13:00,51.0,32.0,30.06,SW,225,12.9,12.9,48,0.00,,,0.00,WUHU216HW,2013-12-27 21:13:00,
2013-12-27 15:15:00,51.0,32.0,30.06,South,180,8.5,12.9,48,0.00,,,0.00,WUHU216HW,2013-12-27 21:15:00,
2013-12-27 15:18:00,51.0,32.0,30.06,SW,225,3.5,12.9,48,0.00,,,0.00,WUHU216HW,2013-12-27 21:18:00,
2013-12-27 15:19:00,51.0,32.0,30.06,SW,225,3.5,12.9,48,0.00,,,0.00,WUHU216HW,2013-12-27 21:19:00,
2013-12-27 15:20:00,51.0,32.0,30.05,WSW,248,4.0,12.9,48,0.00,,,0.00,WUHU216HW,2013-12-27 21:20:00,
2013-12-27 15:21:00,51.0,32.0,30.05,WSW,248,4.0,12.9,48,0.00,,,0.00,WUHU216HW,2013-12-27 21:21:00,
2013-12-27 15:23:00,51.2,32.1,30.05,SSW,203,9.1,12.9,48,0.00,,,0.00,WUHU216HW,2013-12-27 21:23:00,
2013-12-27 15:24:00,51.0,32.0,30.05,SW,225,7.3,9.1,48,0.00,,,0.00,WUHU216HW,2013-12-27 21:24:00,
2013-12-27 15:25:00,51.0,32.0,30.06,SW,225,9.8,9.8,48,0.00,,,0.00,WUHU216HW,2013-12-27 21:25:00,
2013-12-27 15:26:00,51.0,32.0,30.06,SW,225,9.8,9.8,48,0.00,,,0.00,WUHU216HW,2013-12-27 21:26:00,
2013-12-27 15:28:00,50.9,31.8,30.06,SW,225,10.7,10.7,48,0.00,,,0.00,WUHU216HW,2013-12-27 21:28:00,
2013-12-27 15:29:00,50.9,31.8,30.06,SW,225,10.7,10.7,48,0.00,,,0.00,WUHU216HW,2013-12-27 21:29:00,
2013-12-27 15:30:00,50.7,31.7,30.05,SW,225,10.2,10.7,48,0.00,,,0.00,WUHU216HW,2013-12-27 21:30:00,
2013-12-27 15:31:00,50.7,31.7,30.05,SW,225,10.2,10.7,48,0.00,,,0.00,WUHU216HW,2013-12-27 21:31:00,
2013-12-27 15:33:00,50.7,31.7,30.05,SW,225,4.6,10.7,48,0.00,,,0.00,WUHU216HW,2013-12-27 21:33:00,
2013-12-27 15:34:00,50.7,31.7,30.05,SW,225,4.6,10.7,48,0.00,,,0.00,WUHU216HW,2013-12-27 21:34:00,
2013-12-27 15:35:00,50.7,31.7,30.05,SW,225,12.0,12.0,48,0.00,,,0.00,WUHU216HW,2013-12-27 21:35:00,
2013-12-27 15:36:00,50.7,31.7,30.05,SW,225,12.0,12.0,48,0.00,,,0.00,WUHU216HW,2013-12-27 21:36:00,
2013-12-27 15:38:00,50.5,31.5,30.05,South,180,7.6,12.0,48,0.00,,,0.00,WUHU216HW,2013-12-27 21:38:00,
2013-12-27 15:39:00,50.5,31.5,30.05,South,180,7.6,12.0,48,0.00,,,0.00,WUHU216HW,2013-12-27 21:39:00,
2013-12-27 15:40:00,50.5,31.5,30.05,South,180,7.6,12.0,48,0.00,,,0.00,WUHU216HW,2013-12-27 21:40:00,
2013-12-27 15:41:00,50.3,31.3,30.05,South,180,10.2,12.0,48,0.00,,,0.00,WUHU216HW,2013-12-27 21:41:00,
2013-12-27 15:44:00,50.1,31.2,30.05,South,180,6.4,12.0,48,0.00,,,0.00,WUHU216HW,2013-12-27 21:44:00,
2013-12-27 15:45:00,50.1,31.2,30.05,SW,225,17.2,17.2,48,0.00,,,0.00,WUHU216HW,2013-12-27 21:45:00,
2013-12-27 15:46:00,50.1,31.2,30.05,SW,225,17.2,17.2,48,0.00,,,0.00,WUHU216HW,2013-12-27 21:46:00,
2013-12-27 15:49:00,49.8,30.8,30.05,SW,225,4.6,17.2,48,0.00,,,0.00,WUHU216HW,2013-12-27 21:49:00,
2013-12-27 15:50:00,49.8,30.8,30.05,SW,225,4.6,17.2,48,0.00,,,0.00,WUHU216HW,2013-12-27 21:50:00,
2013-12-27 15:51:00,49.8,30.8,30.05,SW,225,4.6,17.2,48,0.00,,,0.00,WUHU216HW,2013-12-27 21:51:00,
2013-12-27 15:55:00,49.6,31.2,30.05,SW,225,8.7,17.2,49,0.00,,,0.00,WUHU216HW,2013-12-27 21:55:00,
2013-12-27 15:56:00,49.2,30.9,30.05,WSW,248,5.5,17.2,49,0.00,,,0.00,WUHU216HW,2013-12-27 21:56:00,
2013-12-27 16:00:00,49.1,30.7,30.05,SSW,203,14.3,14.3,49,0.00,,,0.00,WUHU216HW,2013-12-27 22:00:00,
2013-12-27 16:01:00,49.1,30.7,30.05,SSW,203,14.3,14.3,49,0.00,,,0.00,WUHU216HW,2013-12-27 22:01:00,
2013-12-27 16:05:00,48.7,30.3,30.05,SW,225,8.9,14.3,49,0.00,,,0.00,WUHU216HW,2013-12-27 22:05:00,
2013-12-27 16:06:00,48.7,30.3,30.05,SW,225,8.9,14.3,49,0.00,,,0.00,WUHU216HW,2013-12-27 22:06:00,
2013-12-27 16:10:00,48.5,30.1,30.05,SSW,203,8.7,14.3,49,0.00,,,0.00,WUHU216HW,2013-12-27 22:10:00,
2013-12-27 16:11:00,48.3,30.0,30.05,SSW,203,6.2,10.5,49,0.00,,,0.00,WUHU216HW,2013-12-27 22:11:00,
2013-12-27 16:12:00,48.3,30.0,30.05,SSW,203,6.2,10.5,49,0.00,,,0.00,WUHU216HW,2013-12-27 22:12:00,
2013-12-27 16:15:00,48.3,30.3,30.05,SSW,203,7.8,10.5,50,0.00,,,0.00,WUHU216HW,2013-12-27 22:15:00,
2013-12-27 16:16:00,48.2,30.3,30.05,SSW,203,7.8,10.5,50,0.00,,,0.00,WUHU216HW,2013-12-27 22:16:00,
2013-12-27 16:17:00,48.2,30.2,30.05,SSW,203,7.8,10.5,50,0.00,,,0.00,WUHU216HW,2013-12-27 22:17:00,
2013-12-27 16:20:00,48.0,30.2,30.05,WSW,248,9.8,12.9,50,0.00,,,0.00,WUHU216HW,2013-12-27 22:20:00,
2013-12-27 16:21:00,48.0,30.2,30.06,WSW,248,9.8,12.9,50,0.00,,,0.00,WUHU216HW,2013-12-27 22:21:00,
2013-12-27 16:22:00,48.0,30.0,30.05,SW,225,12.7,12.9,50,0.00,,,0.00,WUHU216HW,2013-12-27 22:22:00,
2013-12-27 16:25:00,47.4,29.7,30.05,SSW,203,13.4,13.4,50,0.00,,,0.00,WUHU216HW,2013-12-27 22:25:00,
2013-12-27 16:26:00,47.4,29.7,30.05,SSW,203,13.4,13.4,50,0.00,,,0.00,WUHU216HW,2013-12-27 22:26:00,
2013-12-27 16:27:00,47.4,29.7,30.05,SSW,203,13.4,13.4,50,0.00,,,0.00,WUHU216HW,2013-12-27 22:27:00,
2013-12-27 16:30:00,47.4,29.7,30.05,SSW,203,9.6,13.4,50,0.00,,,0.00,WUHU216HW,2013-12-27 22:30:00,
2013-12-27 16:31:00,47.4,29.7,30.05,SSW,203,9.6,13.4,50,0.00,,,0.00,WUHU216HW,2013-12-27 22:31:00,
2013-12-27 16:32:00,47.4,29.7,30.05,SSW,203,8.5,13.4,51,0.00,,,0.00,WUHU216HW,2013-12-27 22:32:00,
2013-12-27 16:33:00,47.3,30.0,30.05,SSW,203,8.5,13.4,51,0.00,,,0.00,WUHU216HW,2013-12-27 22:33:00,
2013-12-27 16:36:00,47.3,30.0,30.05,South,180,14.5,14.5,51,0.00,,,0.00,WUHU216HW,2013-12-27 22:36:00,
2013-12-27 16:37:00,47.1,29.8,30.06,South,180,5.8,14.5,51,0.00,,,0.00,WUHU216HW,2013-12-27 22:37:00,
2013-12-27 16:38:00,47.1,29.8,30.06,SSW,203,0.0,14.5,51,0.00,,,0.00,WUHU216HW,2013-12-27 22:38:00,
2013-12-27 16:41:00,46.9,29.6,30.05,SSW,203,10.7,14.5,51,0.00,,,0.00,WUHU216HW,2013-12-27 22:41:00,
2013-12-27 16:42:00,46.9,29.6,30.05,South,180,10.7,14.5,51,0.00,,,0.00,WUHU216HW,2013-12-27 22:42:00,
2013-12-27 16:43:00,46.9,29.6,30.05,South,180,10.7,14.5,51,0.00,,,0.00,WUHU216HW,2013-12-27 22:43:00,
2013-12-27 16:46:00,46.7,29.5,30.05,SW,225,19.9,19.9,51,0.00,,,0.00,WUHU216HW,2013-12-27 22:46:00,
2013-12-27 16:47:00,46.7,29.5,30.05,SW,225,9.6,19.9,51,0.00,,,0.00,WUHU216HW,2013-12-27 22:47:00,
2013-12-27 16:48:00,46.5,29.8,30.05,SW,225,9.6,19.9,52,0.00,,,0.00,WUHU216HW,2013-12-27 22:48:00,
2013-12-27 16:49:00,46.5,29.8,30.05,SW,225,9.6,19.9,52,0.00,,,0.00,WUHU216HW,2013-12-27 22:49:00,
2013-12-27 16:51:00,46.5,29.8,30.05,South,180,14.3,19.9,52,0.00,,,0.00,WUHU216HW,2013-12-27 22:51:00,
2013-12-27 16:52:00,46.2,29.4,30.05,SW,225,9.1,19.9,52,0.00,,,0.00,WUHU216HW,2013-12-27 22:52:00,
2013-12-27 16:54:00,46.2,29.4,30.05,SSW,203,6.4,19.9,52,0.00,,,0.00,WUHU216HW,2013-12-27 22:54:00,
2013-12-27 16:56:00,46.2,29.4,30.06,South,180,2.9,14.3,52,0.00,,,0.00,WUHU216HW,2013-12-27 22:56:00,
2013-12-27 16:57:00,46.2,29.4,30.06,South,180,2.9,14.3,52,0.00,,,0.00,WUHU216HW,2013-12-27 22:57:00,
2013-12-27 16:59:00,46.0,29.3,30.05,SSW,203,10.7,14.3,52,0.00,,,0.00,WUHU216HW,2013-12-27 22:59:00,
2013-12-27 17:01:00,46.0,29.4,30.05,SSW,203,10.5,10.7,53,0.00,,,0.00,WUHU216HW,2013-12-27 23:01:00,
2013-12-27 17:02:00,46.0,29.4,30.05,SSW,203,10.5,10.7,53,0.00,,,0.00,WUHU216HW,2013-12-27 23:02:00,
2013-12-27 17:04:00,45.6,29.4,30.05,SSW,203,10.5,10.7,53,0.00,,,0.00,WUHU216HW,2013-12-27 23:04:00,
2013-12-27 17:05:00,45.6,29.4,30.05,SSW,203,13.4,13.4,53,0.00,,,0.00,WUHU216HW,2013-12-27 23:05:00,
2013-12-27 17:06:00,45.6,29.4,30.05,South,180,7.6,13.4,53,0.00,,,0.00,WUHU216HW,2013-12-27 23:06:00,
2013-12-27 17:07:00,45.6,29.4,30.05,South,180,7.6,13.4,53,0.00,,,0.00,WUHU216HW,2013-12-27 23:07:00,
2013-12-27 17:09:00,45.5,29.3,30.05,SSW,203,6.4,13.4,53,0.00,,,0.00,WUHU216HW,2013-12-27 23:09:00,
2013-12-27 17:10:00,45.5,29.3,30.05,SSW,203,6.4,13.4,53,0.00,,,0.00,WUHU216HW,2013-12-27 23:10:00,
2013-12-27 17:12:00,45.3,29.1,30.05,SW,225,8.5,13.4,53,0.00,,,0.00,WUHU216HW,2013-12-27 23:12:00,
2013-12-27 17:15:00,45.1,29.4,30.05,SSW,203,12.3,12.3,54,0.00,,,0.00,WUHU216HW,2013-12-27 23:15:00,
2013-12-27 17:16:00,45.1,29.4,30.05,SSW,203,12.3,12.3,54,0.00,,,0.00,WUHU216HW,2013-12-27 23:16:00,
2013-12-27 17:17:00,45.1,29.4,30.05,SSW,203,12.3,12.3,54,0.00,,,0.00,WUHU216HW,2013-12-27 23:17:00,
2013-12-27 17:21:00,45.1,29.4,30.05,South,180,6.7,12.3,54,0.00,,,0.00,WUHU216HW,2013-12-27 23:21:00,
2013-12-27 17:22:00,44.9,29.2,30.06,SSW,203,6.0,12.3,54,0.00,,,0.00,WUHU216HW,2013-12-27 23:22:00,
2013-12-27 17:23:00,44.9,29.2,30.06,SSW,203,6.0,12.3,54,0.00,,,0.00,WUHU216HW,2013-12-27 23:23:00,
2013-12-27 17:26:00,44.7,29.1,30.05,South,180,5.1,12.3,54,0.00,,,0.00,WUHU216HW,2013-12-27 23:26:00,
2013-12-27 17:27:00,44.7,29.1,30.05,South,180,9.3,9.3,54,0.00,,,0.00,WUHU216HW,2013-12-27 23:27:00,
2013-12-27 17:28:00,44.7,29.1,30.05,SSW,203,10.2,10.2,54,0.00,,,0.00,WUHU216HW,2013-12-27 23:28:00,
2013-12-27 17:31:00,44.6,28.9,30.05,SSW,203,8.9,10.2,54,0.00,,,0.00,WUHU216HW,2013-12-27 23:31:00,
2013-12-27 17:32:00,44.4,28.9,30.05,SSW,203,10.0,10.2,54,0.00,,,0.00,WUHU216HW,2013-12-27 23:32:00,
2013-12-27 17:33:00,44.4,29.2,30.05,SSW,203,10.0,10.2,55,0.00,,,0.00,WUHU216HW,2013-12-27 23:33:00,
2013-12-27 17:36:00,44.4,29.2,30.05,SSW,203,8.5,10.2,55,0.00,,,0.00,WUHU216HW,2013-12-27 23:36:00,
2013-12-27 17:37:00,44.4,29.2,30.05,SSW,203,6.7,10.2,55,0.00,,,0.00,WUHU216HW,2013-12-27 23:37:00,
2013-12-27 17:38:00,44.4,29.2,30.05,SSW,203,6.7,10.2,55,0.00,,,0.00,WUHU216HW,2013-12-27 23:38:00,
2013-12-27 17:42:00,44.2,29.0,30.05,SSW,203,6.7,10.0,55,0.00,,,0.00,WUHU216HW,2013-12-27 23:42:00,
2013-12-27 17:43:00,44.2,29.0,30.05,SSW,203,6.7,10.0,55,0.00,,,0.00,WUHU216HW,2013-12-27 23:43:00,
2013-12-27 17:47:00,44.0,28.8,30.05,South,180,5.5,7.1,55,0.00,,,0.00,WUHU216HW,2013-12-27 23:47:00,
2013-12-27 17:48:00,44.0,28.8,30.05,South,180,5.5,7.1,55,0.00,,,0.00,WUHU216HW,2013-12-27 23:48:00,
2013-12-27 17:49:00,44.0,28.8,30.05,SW,225,12.7,12.7,55,0.00,,,0.00,WUHU216HW,2013-12-27 23:49:00,
2013-12-27 17:53:00,43.8,29.1,30.05,SSW,203,2.9,12.7,56,0.00,,,0.00,WUHU216HW,2013-12-27 23:53:00,
2013-12-27 17:54:00,43.8,29.1,30.05,SSW,203,7.8,12.7,56,0.00,,,0.00,WUHU216HW,2013-12-27 23:54:00,
2013-12-27 17:58:00,43.8,29.1,30.05,SSW,203,6.4,12.7,56,0.00,,,0.00,WUHU216HW,2013-12-27 23:58:00,
2013-12-27 17:59:00,43.8,29.1,30.06,SSW,203,6.4,8.9,56,0.00,,,0.00,WUHU216HW,2013-12-27 23:59:00,
2013-12-27 18:03:00,43.8,29.1,30.05,South,180,6.0,8.9,56,0.00,,,0.00,WUHU216HW,2013-12-28 00:03:00,
2013-12-27 18:04:00,43.8,29.1,30.06,South,180,6.0,8.9,56,0.00,,,0.00,WUHU216HW,2013-12-28 00:04:00,
2013-12-27 18:08:00,43.8,29.1,30.05,SW,225,9.1,9.1,56,0.00,,,0.00,WUHU216HW,2013-12-28 00:08:00,
2013-12-27 18:09:00,43.8,29.1,30.05,SSW,203,10.2,10.2,56,0.00,,,0.00,WUHU216HW,2013-12-28 00:09:00,
2013-12-27 18:10:00,43.8,29.1,30.05,SSW,203,10.2,10.2,56,0.00,,,0.00,WUHU216HW,2013-12-28 00:10:00,
2013-12-27 18:13:00,43.7,29.4,30.05,South,180,2.2,10.2,57,0.00,,,0.00,WUHU216HW,2013-12-28 00:13:00,
2013-12-27 18:14:00,43.7,29.4,30.05,South,180,7.8,10.2,57,0.00,,,0.00,WUHU216HW,2013-12-28 00:14:00,
2013-12-27 18:15:00,43.7,29.4,30.05,South,180,7.8,10.2,57,0.00,,,0.00,WUHU216HW,2013-12-28 00:15:00,
2013-12-27 18:16:00,43.7,29.4,30.05,South,180,7.8,10.2,57,0.00,,,0.00,WUHU216HW,2013-12-28 00:16:00,
2013-12-27 18:18:00,43.7,29.4,30.05,SSW,203,8.0,10.2,57,0.00,,,0.00,WUHU216HW,2013-12-28 00:18:00,
2013-12-27 18:19:00,43.7,29.4,30.05,SSW,203,8.0,10.2,57,0.00,,,0.00,WUHU216HW,2013-12-28 00:19:00,
2013-12-27 18:20:00,43.7,29.4,30.05,SW,225,13.4,13.4,57,0.00,,,0.00,WUHU216HW,2013-12-28 00:20:00,
2013-12-27 18:21:00,43.7,29.4,30.06,SW,225,13.4,13.4,57,0.00,,,0.00,WUHU216HW,2013-12-28 00:21:00,
2013-12-27 18:23:00,43.7,29.4,30.05,SSW,203,4.4,13.4,57,0.00,,,0.00,WUHU216HW,2013-12-28 00:23:00,
2013-12-27 18:24:00,43.7,29.4,30.05,SSW,203,4.4,13.4,57,0.00,,,0.00,WUHU216HW,2013-12-28 00:24:00,
2013-12-27 18:25:00,43.7,29.4,30.05,SSW,203,5.3,13.4,57,0.00,,,0.00,WUHU216HW,2013-12-28 00:25:00,
2013-12-27 18:26:00,43.7,29.4,30.05,SSW,203,11.8,13.4,57,0.00,,,0.00,WUHU216HW,2013-12-28 00:26:00,
2013-12-27 18:28:00,43.7,29.4,30.05,South,180,5.8,13.4,57,0.00,,,0.00,WUHU216HW,2013-12-28 00:28:00,
2013-12-27 18:29:00,43.7,29.4,30.05,South,180,5.8,13.4,57,0.00,,,0.00,WUHU216HW,2013-12-28 00:29:00,
2013-12-27 18:30:00,43.7,29.4,30.05,SSW,203,5.1,13.4,57,0.00,,,0.00,WUHU216HW,2013-12-28 00:30:00,
2013-12-27 18:31:00,43.7,29.4,30.05,SSW,203,5.1,11.8,57,0.00,,,0.00,WUHU216HW,2013-12-28 00:31:00,
2013-12-27 18:33:00,43.7,29.4,30.05,SW,225,5.1,11.8,57,0.00,,,0.00,WUHU216HW,2013-12-28 00:33:00,
2013-12-27 18:34:00,43.7,29.4,30.05,SW,225,5.1,11.8,57,0.00,,,0.00,WUHU216HW,2013-12-28 00:34:00,
2013-12-27 18:35:00,43.7,29.4,30.05,SW,225,5.1,11.8,57,0.00,,,0.00,WUHU216HW,2013-12-28 00:35:00,
2013-12-27 18:36:00,43.7,29.4,30.05,SW,225,5.1,11.8,57,0.00,,,0.00,WUHU216HW,2013-12-28 00:36:00,
2013-12-27 18:39:00,43.5,29.2,30.05,SSW,203,5.1,8.2,57,0.00,,,0.00,WUHU216HW,2013-12-28 00:39:00,
2013-12-27 18:40:00,43.5,29.6,30.05,SW,225,5.1,8.2,58,0.00,,,0.00,WUHU216HW,2013-12-28 00:40:00,
2013-12-27 18:41:00,43.5,29.6,30.05,SW,225,5.1,8.2,58,0.00,,,0.00,WUHU216HW,2013-12-28 00:41:00,
2013-12-27 18:42:00,43.5,29.6,30.05,SW,225,5.1,8.2,58,0.00,,,0.00,WUHU216HW,2013-12-28 00:42:00,
2013-12-27 18:44:00,43.5,29.6,30.05,SW,225,7.6,8.2,58,0.00,,,0.00,WUHU216HW,2013-12-28 00:44:00,
2013-12-27 18:46:00,43.5,29.6,30.05,SW,225,7.6,8.2,58,0.00,,,0.00,WUHU216HW,2013-12-28 00:46:00,
2013-12-27 18:47:00,43.5,29.6,30.05,WSW,248,14.9,14.9,58,0.00,,,0.00,WUHU216HW,2013-12-28 00:47:00,
2013-12-27 18:49:00,43.3,29.4,30.05,SSW,203,5.3,14.9,58,0.00,,,0.00,WUHU216HW,2013-12-28 00:49:00,
2013-12-27 18:50:00,43.3,29.4,30.05,SSW,203,5.3,14.9,58,0.00,,,0.00,WUHU216HW,2013-12-28 00:50:00,
2013-12-27 18:51:00,43.3,29.4,30.05,SSW,203,5.3,14.9,58,0.00,,,0.00,WUHU216HW,2013-12-28 00:51:00,
2013-12-27 18:53:00,43.3,29.4,30.05,SSW,203,13.6,14.9,58,0.00,,,0.00,WUHU216HW,2013-12-28 00:53:00,
2013-12-27 18:54:00,43.3,29.4,30.05,SSW,203,8.7,14.9,58,0.00,,,0.00,WUHU216HW,2013-12-28 00:54:00,
2013-12-27 18:55:00,43.3,29.4,30.05,SSW,203,4.2,14.9,58,0.00,,,0.00,WUHU216HW,2013-12-28 00:55:00,
2013-12-27 18:56:00,43.3,29.4,30.05,SSW,203,4.2,14.9,58,0.00,,,0.00,WUHU216HW,2013-12-28 00:56:00,
2013-12-27 18:57:00,43.3,29.4,30.05,SSW,203,4.2,14.9,58,0.00,,,0.00,WUHU216HW,2013-12-28 00:57:00,
2013-12-27 18:58:00,43.1,29.7,30.05,SSW,203,7.1,13.6,59,0.00,,,0.00,WUHU216HW,2013-12-28 00:58:00,
2013-12-27 19:01:00,43.1,29.7,30.05,SSW,203,5.5,13.6,59,0.00,,,0.00,WUHU216HW,2013-12-28 01:01:00,
2013-12-27 19:02:00,42.9,29.1,30.05,SW,225,4.4,13.6,58,0.00,,,0.00,WUHU216HW,2013-12-28 01:02:00,
2013-12-27 19:03:00,42.9,29.1,30.06,SW,225,4.4,8.7,58,0.00,,,0.00,WUHU216HW,2013-12-28 01:03:00,
2013-12-27 19:06:00,42.9,29.1,30.06,South,180,4.2,7.1,58,0.00,,,0.00,WUHU216HW,2013-12-28 01:06:00,
2013-12-27 19:07:00,42.9,29.5,30.06,SSW,203,9.1,9.1,59,0.00,,,0.00,WUHU216HW,2013-12-28 01:07:00,
2013-12-27 19:08:00,42.9,29.5,30.06,SSW,203,4.9,9.1,59,0.00,,,0.00,WUHU216HW,2013-12-28 01:08:00,
2013-12-27 19:09:00,42.9,29.5,30.06,SSW,203,4.9,9.1,59,0.00,,,0.00,WUHU216HW,2013-12-28 01:09:00,
2013-12-27 19:11:00,42.9,29.5,30.06,South,180,10.0,10.0,59,0.00,,,0.00,WUHU216HW,2013-12-28 01:11:00,
2013-12-27 19:12:00,42.9,29.5,30.06,South,180,10.0,10.0,59,0.00,,,0.00,WUHU216HW,2013-12-28 01:12:00,
2013-12-27 19:14:00,42.8,29.4,30.06,SSW,203,10.2,10.2,59,0.00,,,0.00,WUHU216HW,2013-12-28 01:14:00,
2013-12-27 19:16:00,42.8,29.4,30.06,SW,225,7.3,10.2,59,0.00,,,0.00,WUHU216HW,2013-12-28 01:16:00,
2013-12-27 19:17:00,42.8,29.8,30.06,SW,225,7.6,10.2,60,0.00,,,0.00,WUHU216HW,2013-12-28 01:17:00,
2013-12-27 19:19:00,42.8,29.8,30.06,SSW,203,9.1,10.2,60,0.00,,,0.00,WUHU216HW,2013-12-28 01:19:00,
2013-12-27 19:21:00,42.6,29.6,30.06,SSW,203,9.1,10.2,60,0.00,,,0.00,WUHU216HW,2013-12-28 01:21:00,
2013-12-27 19:22:00,42.6,29.6,30.06,SW,225,6.2,10.2,60,0.00,,,0.00,WUHU216HW,2013-12-28 01:22:00,
2013-12-27 19:24:00,42.6,29.6,30.06,SW,225,4.6,9.1,60,0.00,,,0.00,WUHU216HW,2013-12-28 01:24:00,
2013-12-27 19:25:00,42.6,29.6,30.06,SW,225,4.6,9.1,60,0.00,,,0.00,WUHU216HW,2013-12-28 01:25:00,
2013-12-27 19:26:00,42.6,29.6,30.06,SW,225,7.1,9.1,60,0.00,,,0.00,WUHU216HW,2013-12-28 01:26:00,
2013-12-27 19:27:00,42.6,29.6,30.06,SW,225,7.1,9.1,60,0.00,,,0.00,WUHU216HW,2013-12-28 01:27:00,
2013-12-27 19:29:00,42.6,30.0,30.06,SSW,203,6.4,9.1,61,0.00,,,0.00,WUHU216HW,2013-12-28 01:29:00,
2013-12-27 19:30:00,42.6,30.0,30.06,SSW,203,6.4,9.1,61,0.00,,,0.00,WUHU216HW,2013-12-28 01:30:00,
2013-12-27 19:31:00,42.6,30.0,30.06,SSW,203,6.4,7.1,61,0.00,,,0.00,WUHU216HW,2013-12-28 01:31:00,
2013-12-27 19:32:00,42.4,29.8,30.06,South,180,8.0,8.0,61,0.00,,,0.00,WUHU216HW,2013-12-28 01:32:00,
2013-12-27 19:33:00,42.4,29.8,30.06,South,180,8.0,8.0,61,0.00,,,0.00,WUHU216HW,2013-12-28 01:33:00,
2013-12-27 19:35:00,42.4,29.8,30.06,SSW,203,6.0,8.0,61,0.00,,,0.00,WUHU216HW,2013-12-28 01:35:00,
2013-12-27 19:36:00,42.4,29.8,30.06,SW,225,4.0,8.0,61,0.00,,,0.00,WUHU216HW,2013-12-28 01:36:00,
2013-12-27 19:37:00,42.4,29.8,30.06,SW,225,4.0,8.0,61,0.00,,,0.00,WUHU216HW,2013-12-28 01:37:00,
2013-12-27 19:38:00,42.4,29.8,30.06,SW,225,4.4,8.0,61,0.00,,,0.00,WUHU216HW,2013-12-28 01:38:00,
2013-12-27 19:40:00,42.4,29.8,30.06,SW,225,4.4,8.0,61,0.00,,,0.00,WUHU216HW,2013-12-28 01:40:00,
2013-12-27 19:41:00,42.4,30.2,30.06,South,180,7.1,8.0,62,0.00,,,0.00,WUHU216HW,2013-12-28 01:41:00,
2013-12-27 19:42:00,42.4,30.2,30.06,SW,225,3.8,7.1,62,0.00,,,0.00,WUHU216HW,2013-12-28 01:42:00,
2013-12-27 19:43:00,42.4,30.2,30.06,SW,225,3.8,7.1,62,0.00,,,0.00,WUHU216HW,2013-12-28 01:43:00,
2013-12-27 19:45:00,42.2,30.1,30.07,SW,225,8.9,8.9,62,0.00,,,0.00,WUHU216HW,2013-12-28 01:45:00,
2013-12-27 19:46:00,42.2,30.1,30.06,SW,225,8.9,8.9,62,0.00,,,0.00,WUHU216HW,2013-12-28 01:46:00,
2013-12-27 19:48:00,42.0,29.9,30.06,SW,225,6.2,8.9,62,0.00,,,0.00,WUHU216HW,2013-12-28 01:48:00,
2013-12-27 19:49:00,42.0,29.9,30.06,SW,225,6.2,8.9,62,0.00,,,0.00,WUHU216HW,2013-12-28 01:49:00,
2013-12-27 19:50:00,42.0,29.9,30.06,SW,225,6.2,8.9,62,0.00,,,0.00,WUHU216HW,2013-12-28 01:50:00,
2013-12-27 19:51:00,42.0,29.9,30.06,SW,225,6.2,8.9,62,0.00,,,0.00,WUHU216HW,2013-12-28 01:51:00,
2013-12-27 19:53:00,42.0,29.9,30.06,SSW,203,6.2,8.9,62,0.00,,,0.00,WUHU216HW,2013-12-28 01:53:00,
2013-12-27 19:54:00,42.0,29.9,30.06,SSW,203,6.2,8.9,62,0.00,,,0.00,WUHU216HW,2013-12-28 01:54:00,
2013-12-27 19:56:00,41.9,29.8,30.06,SW,225,12.9,12.9,62,0.00,,,0.00,WUHU216HW,2013-12-28 01:56:00,
2013-12-27 19:57:00,41.9,29.8,30.06,SW,225,12.9,12.9,62,0.00,,,0.00,WUHU216HW,2013-12-28 01:57:00,
2013-12-27 19:58:00,41.9,29.8,30.06,South,180,3.5,12.9,62,0.00,,,0.00,WUHU216HW,2013-12-28 01:58:00,
2013-12-27 19:59:00,41.9,29.8,30.06,South,180,3.5,12.9,62,0.00,,,0.00,WUHU216HW,2013-12-28 01:59:00,
2013-12-27 20:01:00,41.9,30.1,30.06,SSW,203,5.3,12.9,63,0.00,,,0.00,WUHU216HW,2013-12-28 02:01:00,
2013-12-27 20:02:00,41.7,30.0,30.06,WSW,248,4.4,12.9,63,0.00,,,0.00,WUHU216HW,2013-12-28 02:02:00,
2013-12-27 20:04:00,41.7,30.0,30.06,WSW,248,4.4,12.9,63,0.00,,,0.00,WUHU216HW,2013-12-28 02:04:00,
2013-12-27 20:06:00,41.7,30.0,30.06,SW,225,4.6,12.9,63,0.00,,,0.00,WUHU216HW,2013-12-28 02:06:00,
2013-12-27 20:07:00,41.5,29.8,30.06,SW,225,4.6,5.3,63,0.00,,,0.00,WUHU216HW,2013-12-28 02:07:00,
2013-12-27 20:09:00,41.5,29.8,30.06,South,180,4.9,5.3,63,0.00,,,0.00,WUHU216HW,2013-12-28 02:09:00,
2013-12-27 20:10:00,41.5,29.8,30.06,South,180,4.9,5.3,63,0.00,,,0.00,WUHU216HW,2013-12-28 02:10:00,
2013-12-27 20:11:00,41.5,29.8,30.06,SW,225,8.5,8.5,63,0.00,,,0.00,WUHU216HW,2013-12-28 02:11:00,
2013-12-27 20:12:00,41.3,30.0,30.06,SW,225,11.8,11.8,64,0.00,,,0.00,WUHU216HW,2013-12-28 02:12:00,
2013-12-27 20:13:00,41.3,30.0,30.06,SW,225,11.8,11.8,64,0.00,,,0.00,WUHU216HW,2013-12-28 02:13:00,
2013-12-27 20:14:00,41.3,30.0,30.06,SW,225,11.8,11.8,64,0.00,,,0.00,WUHU216HW,2013-12-28 02:14:00,
2013-12-27 20:15:00,41.3,30.0,30.06,SSW,203,5.1,11.8,64,0.00,,,0.00,WUHU216HW,2013-12-28 02:15:00,
2013-12-27 20:16:00,41.1,29.8,30.06,South,180,11.6,11.8,64,0.00,,,0.00,WUHU216HW,2013-12-28 02:16:00,
2013-12-27 20:17:00,41.1,29.8,30.06,South,180,11.6,11.8,64,0.00,,,0.00,WUHU216HW,2013-12-28 02:17:00,
2013-12-27 20:18:00,41.1,29.8,30.06,South,180,11.6,11.8,64,0.00,,,0.00,WUHU216HW,2013-12-28 02:18:00,
2013-12-27 20:19:00,41.1,29.8,30.06,South,180,11.6,11.8,64,0.00,,,0.00,WUHU216HW,2013-12-28 02:19:00,
2013-12-27 20:20:00,41.1,29.8,30.06,SW,225,6.4,11.8,64,0.00,,,0.00,WUHU216HW,2013-12-28 02:20:00,
2013-12-27 20:22:00,41.1,29.8,30.06,SSW,203,12.9,12.9,64,0.00,,,0.00,WUHU216HW,2013-12-28 02:22:00,
2013-12-27 20:24:00,41.1,29.8,30.06,SSW,203,6.7,12.9,64,0.00,,,0.00,WUHU216HW,2013-12-28 02:24:00,
2013-12-27 20:26:00,41.1,29.8,30.06,SE,135,6.4,12.9,64,0.00,,,0.00,WUHU216HW,2013-12-28 02:26:00,
2013-12-27 20:27:00,41.1,29.8,30.06,SE,135,6.4,12.9,64,0.00,,,0.00,WUHU216HW,2013-12-28 02:27:00,
2013-12-27 20:29:00,41.1,29.8,30.06,South,180,6.2,12.9,65,0.00,,,0.00,WUHU216HW,2013-12-28 02:29:00,
2013-12-27 20:30:00,41.1,29.8,30.06,South,180,6.2,12.9,65,0.00,,,0.00,WUHU216HW,2013-12-28 02:30:00,
2013-12-27 20:31:00,41.1,30.2,30.06,SSW,203,6.9,12.9,65,0.00,,,0.00,WUHU216HW,2013-12-28 02:31:00,
2013-12-27 20:32:00,41.1,30.2,30.06,SSW,203,6.9,12.9,65,0.00,,,0.00,WUHU216HW,2013-12-28 02:32:00,
2013-12-27 20:33:00,41.1,30.2,30.06,SSW,203,6.9,11.6,65,0.00,,,0.00,WUHU216HW,2013-12-28 02:33:00,
2013-12-27 20:34:00,41.1,30.2,30.06,SSW,203,6.7,11.6,65,0.00,,,0.00,WUHU216HW,2013-12-28 02:34:00,
2013-12-27 20:35:00,41.1,30.2,30.06,SSW,203,6.7,11.6,65,0.00,,,0.00,WUHU216HW,2013-12-28 02:35:00,
2013-12-27 20:36:00,41.1,30.2,30.06,WSW,248,6.9,11.6,65,0.00,,,0.00,WUHU216HW,2013-12-28 02:36:00,
2013-12-27 20:37:00,41.1,30.2,30.06,WSW,248,6.9,11.6,65,0.00,,,0.00,WUHU216HW,2013-12-28 02:37:00,
2013-12-27 20:38:00,41.1,30.2,30.06,WSW,248,6.9,11.6,65,0.00,,,0.00,WUHU216HW,2013-12-28 02:38:00,
2013-12-27 20:40:00,41.1,30.2,30.06,SW,225,9.3,9.3,65,0.00,,,0.00,WUHU216HW,2013-12-28 02:40:00,
2013-12-27 20:42:00,41.1,30.2,30.06,SSW,203,10.0,10.0,65,0.00,,,0.00,WUHU216HW,2013-12-28 02:42:00,
2013-12-27 20:43:00,41.1,30.2,30.06,SW,225,7.8,10.0,65,0.00,,,0.00,WUHU216HW,2013-12-28 02:43:00,
2013-12-27 20:45:00,41.1,30.2,30.06,SW,225,6.7,10.0,65,0.00,,,0.00,WUHU216HW,2013-12-28 02:45:00,
2013-12-27 20:47:00,41.1,30.2,30.06,SW,225,7.6,10.0,65,0.00,,,0.00,WUHU216HW,2013-12-28 02:47:00,
2013-12-27 20:48:00,41.1,30.2,30.06,SW,225,7.6,10.0,65,0.00,,,0.00,WUHU216HW,2013-12-28 02:48:00,
2013-12-27 20:50:00,41.1,30.2,30.06,SSW,203,5.1,10.0,65,0.00,,,0.00,WUHU216HW,2013-12-28 02:50:00,
2013-12-27 20:51:00,41.1,30.2,30.06,SSW,203,5.1,10.0,65,0.00,,,0.00,WUHU216HW,2013-12-28 02:51:00,
2013-12-27 20:52:00,41.1,30.2,30.06,SW,225,6.7,7.8,65,0.00,,,0.00,WUHU216HW,2013-12-28 02:52:00,
2013-12-27 20:53:00,41.1,30.2,30.06,SW,225,6.7,7.8,65,0.00,,,0.00,WUHU216HW,2013-12-28 02:53:00,
2013-12-27 20:55:00,41.1,30.2,30.07,SSW,203,10.0,10.0,65,0.00,,,0.00,WUHU216HW,2013-12-28 02:55:00,
2013-12-27 20:56:00,41.1,30.2,30.07,SSW,203,10.0,10.0,65,0.00,,,0.00,WUHU216HW,2013-12-28 02:56:00,
2013-12-27 20:57:00,41.1,30.2,30.06,SSW,203,5.1,10.0,65,0.00,,,0.00,WUHU216HW,2013-12-28 02:57:00,
2013-12-27 20:58:00,41.1,30.2,30.06,SSW,203,5.1,10.0,65,0.00,,,0.00,WUHU216HW,2013-12-28 02:58:00,
2013-12-27 21:00:00,41.1,30.2,30.07,SSW,203,8.9,10.0,65,0.00,,,0.00,WUHU216HW,2013-12-28 03:00:00,
2013-12-27 21:01:00,41.1,30.2,30.07,SSW,203,8.9,10.0,65,0.00,,,0.00,WUHU216HW,2013-12-28 03:01:00,
2013-12-27 21:02:00,41.1,30.2,30.07,SW,225,11.6,11.6,65,0.00,,,0.00,WUHU216HW,2013-12-28 03:02:00,
2013-12-27 21:03:00,41.1,30.2,30.07,SW,225,11.6,11.6,65,0.00,,,0.00,WUHU216HW,2013-12-28 03:03:00,
2013-12-27 21:05:00,41.1,30.2,30.07,SW,225,3.3,11.6,65,0.00,,,0.00,WUHU216HW,2013-12-28 03:05:00,
2013-12-27 21:06:00,41.1,30.2,30.07,SSW,203,8.5,11.6,65,0.00,,,0.00,WUHU216HW,2013-12-28 03:06:00,
2013-12-27 21:07:00,41.1,30.2,30.07,SSW,203,8.5,11.6,65,0.00,,,0.00,WUHU216HW,2013-12-28 03:07:00,
2013-12-27 21:08:00,41.1,30.2,30.06,South,180,7.1,11.6,65,0.00,,,0.00,WUHU216HW,2013-12-28 03:08:00,
2013-12-27 21:10:00,41.1,30.2,30.06,South,180,7.1,11.6,65,0.00,,,0.00,WUHU216HW,2013-12-28 03:10:00,
2013-12-27 21:11:00,41.0,30.1,30.07,SSW,203,5.1,11.6,65,0.00,,,0.00,WUHU216HW,2013-12-28 03:11:00,
2013-12-27 21:12:00,41.0,30.1,30.07,SSW,203,5.1,11.6,65,0.00,,,0.00,WUHU216HW,2013-12-28 03:12:00,
2013-12-27 21:13:00,41.0,30.4,30.07,SSW,203,2.9,8.5,66,0.00,,,0.00,WUHU216HW,2013-12-28 03:13:00,
2013-12-27 21:14:00,41.0,30.4,30.07,SSW,203,2.9,8.5,66,0.00,,,0.00,WUHU216HW,2013-12-28 03:14:00,
2013-12-27 21:15:00,41.0,30.4,30.07,West,270,4.2,8.5,66,0.00,,,0.00,WUHU216HW,2013-12-28 03:15:00,
2013-12-27 21:16:00,41.0,30.4,30.07,SSW,203,8.5,8.5,66,0.00,,,0.00,WUHU216HW,2013-12-28 03:16:00,
2013-12-27 21:17:00,41.0,30.4,30.07,SSW,203,8.5,8.5,66,0.00,,,0.00,WUHU216HW,2013-12-28 03:17:00,
2013-12-27 21:18:00,41.0,30.4,30.07,SSW,203,8.5,8.5,66,0.00,,,0.00,WUHU216HW,2013-12-28 03:18:00,
2013-12-27 21:19:00,41.0,30.4,30.07,SSW,203,9.1,9.1,66,0.00,,,0.00,WUHU216HW,2013-12-28 03:19:00,
2013-12-27 21:21:00,41.0,30.4,30.07,SW,225,12.5,12.5,66,0.00,,,0.00,WUHU216HW,2013-12-28 03:21:00,
2013-12-27 21:22:00,41.0,30.4,30.07,SW,225,12.5,12.5,66,0.00,,,0.00,WUHU216HW,2013-12-28 03:22:00,
2013-12-27 21:23:00,41.1,30.6,30.07,South,180,8.2,12.5,66,0.00,,,0.00,WUHU216HW,2013-12-28 03:23:00,
2013-12-27 21:24:00,41.1,30.6,30.07,South,180,8.2,12.5,66,0.00,,,0.00,WUHU216HW,2013-12-28 03:24:00,
2013-12-27 21:26:00,41.1,30.6,30.07,South,180,4.6,12.5,66,0.00,,,0.00,WUHU216HW,2013-12-28 03:26:00,
2013-12-27 21:27:00,41.1,30.6,30.07,SW,225,6.0,12.5,66,0.00,,,0.00,WUHU216HW,2013-12-28 03:27:00,
2013-12-27 21:28:00,41.1,30.6,30.07,SW,225,6.0,12.5,66,0.00,,,0.00,WUHU216HW,2013-12-28 03:28:00,
2013-12-27 21:29:00,41.1,30.6,30.07,SW,225,6.0,12.5,66,0.00,,,0.00,WUHU216HW,2013-12-28 03:29:00,
2013-12-27 21:30:00,41.1,30.6,30.07,South,180,5.5,12.5,66,0.00,,,0.00,WUHU216HW,2013-12-28 03:30:00,
2013-12-27 21:31:00,41.1,30.6,30.07,SSW,203,8.0,12.5,66,0.00,,,0.00,WUHU216HW,2013-12-28 03:31:00,
2013-12-27 21:33:00,41.1,30.6,30.07,SSW,203,8.0,8.2,66,0.00,,,0.00,WUHU216HW,2013-12-28 03:33:00,
2013-12-27 21:34:00,41.1,30.6,30.07,SW,225,6.4,8.2,66,0.00,,,0.00,WUHU216HW,2013-12-28 03:34:00,
2013-12-27 21:35:00,41.1,30.6,30.07,WSW,248,7.3,8.0,66,0.00,,,0.00,WUHU216HW,2013-12-28 03:35:00,
2013-12-27 21:36:00,41.1,30.6,30.07,WSW,248,7.3,8.0,66,0.00,,,0.00,WUHU216HW,2013-12-28 03:36:00,
2013-12-27 21:38:00,41.1,30.6,30.07,WSW,248,7.3,8.0,66,0.00,,,0.00,WUHU216HW,2013-12-28 03:38:00,
2013-12-27 21:39:00,41.1,30.6,30.07,South,180,5.1,8.0,66,0.00,,,0.00,WUHU216HW,2013-12-28 03:39:00,
2013-12-27 21:40:00,41.1,30.6,30.07,SSW,203,6.9,8.0,66,0.00,,,0.00,WUHU216HW,2013-12-28 03:40:00,
2013-12-27 21:41:00,41.1,30.6,30.06,SSW,203,6.9,8.0,66,0.00,,,0.00,WUHU216HW,2013-12-28 03:41:00,
2013-12-27 21:43:00,41.1,31.0,30.06,SW,225,9.6,9.6,67,0.00,,,0.00,WUHU216HW,2013-12-28 03:43:00,
2013-12-27 21:44:00,41.1,31.0,30.06,SW,225,9.6,9.6,67,0.00,,,0.00,WUHU216HW,2013-12-28 03:44:00,
2013-12-27 21:45:00,41.1,31.0,30.06,SW,225,3.8,9.6,67,0.00,,,0.00,WUHU216HW,2013-12-28 03:45:00,
2013-12-27 21:46:00,41.1,31.0,30.06,SW,225,3.8,9.6,67,0.00,,,0.00,WUHU216HW,2013-12-28 03:46:00,
2013-12-27 21:47:00,41.1,31.0,30.06,SW,225,7.6,9.6,67,0.00,,,0.00,WUHU216HW,2013-12-28 03:47:00,
2013-12-27 21:48:00,41.1,31.0,30.06,SW,225,7.6,9.6,67,0.00,,,0.00,WUHU216HW,2013-12-28 03:48:00,
2013-12-27 21:49:00,41.1,31.0,30.06,SW,225,7.6,9.6,67,0.00,,,0.00,WUHU216HW,2013-12-28 03:49:00,
2013-12-27 21:50:00,41.1,31.0,30.06,SW,225,7.6,9.6,67,0.00,,,0.00,WUHU216HW,2013-12-28 03:50:00,
2013-12-27 21:51:00,41.1,31.0,30.06,SW,225,7.6,9.6,67,0.00,,,0.00,WUHU216HW,2013-12-28 03:51:00,
2013-12-27 21:52:00,41.1,31.0,30.06,SW,225,4.9,9.6,67,0.00,,,0.00,WUHU216HW,2013-12-28 03:52:00,
2013-12-27 21:53:00,41.1,31.0,30.06,SW,225,4.9,9.6,67,0.00,,,0.00,WUHU216HW,2013-12-28 03:53:00,
2013-12-27 21:54:00,41.1,31.0,30.06,SW,225,8.2,8.2,67,0.00,,,0.00,WUHU216HW,2013-12-28 03:54:00,
2013-12-27 21:56:00,41.1,31.0,30.06,SW,225,3.8,8.2,67,0.00,,,0.00,WUHU216HW,2013-12-28 03:56:00,
2013-12-27 21:57:00,41.1,31.0,30.06,SW,225,3.8,8.2,67,0.00,,,0.00,WUHU216HW,2013-12-28 03:57:00,
2013-12-27 21:59:00,41.1,31.0,30.06,SSW,203,8.0,8.2,67,0.00,,,0.00,WUHU216HW,2013-12-28 03:59:00,
2013-12-27 22:01:00,41.0,30.8,30.06,SSW,203,5.5,8.2,67,0.00,,,0.00,WUHU216HW,2013-12-28 04:01:00,
2013-12-27 22:02:00,41.1,31.0,30.06,South,180,11.1,11.1,67,0.00,,,0.00,WUHU216HW,2013-12-28 04:02:00,
2013-12-27 22:03:00,41.1,31.0,30.06,South,180,11.1,11.1,67,0.00,,,0.00,WUHU216HW,2013-12-28 04:03:00,
2013-12-27 22:04:00,41.1,31.0,30.06,SSW,203,5.5,11.1,67,0.00,,,0.00,WUHU216HW,2013-12-28 04:04:00,
2013-12-27 22:06:00,41.0,30.8,30.06,SSW,203,4.9,11.1,67,0.00,,,0.00,WUHU216HW,2013-12-28 04:06:00,
2013-12-27 22:07:00,41.0,30.8,30.06,SSW,203,4.9,11.1,67,0.00,,,0.00,WUHU216HW,2013-12-28 04:07:00,
2013-12-27 22:08:00,41.0,30.8,30.06,SSW,203,4.9,11.1,67,0.00,,,0.00,WUHU216HW,2013-12-28 04:08:00,
2013-12-27 22:09:00,41.0,30.8,30.06,SSW,203,10.0,11.1,67,0.00,,,0.00,WUHU216HW,2013-12-28 04:09:00,
2013-12-27 22:12:00,41.0,31.2,30.06,SSW,203,8.0,10.0,68,0.00,,,0.00,WUHU216HW,2013-12-28 04:12:00,
2013-12-27 22:13:00,41.0,31.2,30.06,SSW,203,8.0,10.0,68,0.00,,,0.00,WUHU216HW,2013-12-28 04:13:00,
2013-12-27 22:14:00,41.0,31.2,30.06,SSW,203,8.0,10.0,68,0.00,,,0.00,WUHU216HW,2013-12-28 04:14:00,
2013-12-27 22:15:00,41.0,31.2,30.06,South,180,6.0,10.0,68,0.00,,,0.00,WUHU216HW,2013-12-28 04:15:00,
2013-12-27 22:17:00,41.1,31.4,30.06,WSW,248,6.0,10.0,68,0.00,,,0.00,WUHU216HW,2013-12-28 04:17:00,
2013-12-27 22:18:00,41.1,31.4,30.06,WSW,248,6.0,10.0,68,0.00,,,0.00,WUHU216HW,2013-12-28 04:18:00,
2013-12-27 22:19:00,41.1,31.4,30.06,South,180,6.2,10.0,68,0.00,,,0.00,WUHU216HW,2013-12-28 04:19:00,
2013-12-27 22:20:00,41.1,31.4,30.06,South,180,6.2,8.2,68,0.00,,,0.00,WUHU216HW,2013-12-28 04:20:00,
2013-12-27 22:23:00,41.1,31.4,30.06,SW,225,4.6,8.0,68,0.00,,,0.00,WUHU216HW,2013-12-28 04:23:00,
2013-12-27 22:24:00,41.1,31.4,30.06,SW,225,5.3,6.2,68,0.00,,,0.00,WUHU216HW,2013-12-28 04:24:00,
2013-12-27 22:25:00,41.1,31.4,30.06,SW,225,5.3,6.2,68,0.00,,,0.00,WUHU216HW,2013-12-28 04:25:00,
2013-12-27 22:28:00,41.1,31.4,30.06,SW,225,6.2,6.2,68,0.00,,,0.00,WUHU216HW,2013-12-28 04:28:00,
2013-12-27 22:29:00,41.1,31.4,30.06,SW,225,6.2,6.2,68,0.00,,,0.00,WUHU216HW,2013-12-28 04:29:00,
2013-12-27 22:30:00,41.1,31.4,30.06,SSW,203,2.4,6.2,68,0.00,,,0.00,WUHU216HW,2013-12-28 04:30:00,
2013-12-27 22:33:00,41.1,31.4,30.06,SW,225,4.2,6.2,68,0.00,,,0.00,WUHU216HW,2013-12-28 04:33:00,
2013-12-27 22:34:00,41.1,31.4,30.06,SSW,203,8.5,8.5,68,0.00,,,0.00,WUHU216HW,2013-12-28 04:34:00,
2013-12-27 22:35:00,41.1,31.4,30.06,SSW,203,8.5,8.5,68,0.00,,,0.00,WUHU216HW,2013-12-28 04:35:00,
2013-12-27 22:39:00,41.1,31.4,30.06,SW,225,4.4,8.5,68,0.00,,,0.00,WUHU216HW,2013-12-28 04:39:00,
2013-12-27 22:40:00,41.1,31.4,30.06,SW,225,6.2,8.5,68,0.00,,,0.00,WUHU216HW,2013-12-28 04:40:00,
2013-12-27 22:41:00,41.1,31.4,30.06,SW,225,6.2,8.5,68,0.00,,,0.00,WUHU216HW,2013-12-28 04:41:00,
2013-12-27 22:44:00,41.1,31.4,30.06,SW,225,7.3,8.7,68,0.00,,,0.00,WUHU216HW,2013-12-28 04:44:00,
2013-12-27 22:45:00,41.1,31.4,30.06,SW,225,7.3,8.7,68,0.00,,,0.00,WUHU216HW,2013-12-28 04:45:00,
2013-12-27 22:46:00,41.1,31.4,30.06,SW,225,7.3,8.7,68,0.00,,,0.00,WUHU216HW,2013-12-28 04:46:00,
2013-12-27 22:49:00,41.1,31.4,30.06,SSW,203,3.5,8.7,68,0.00,,,0.00,WUHU216HW,2013-12-28 04:49:00,
2013-12-27 22:50:00,41.1,31.4,30.06,SSW,203,3.1,8.7,68,0.00,,,0.00,WUHU216HW,2013-12-28 04:50:00,
2013-12-27 22:51:00,41.1,31.4,30.06,SSW,203,3.1,8.7,68,0.00,,,0.00,WUHU216HW,2013-12-28 04:51:00,
2013-12-27 22:55:00,41.1,31.4,30.05,SW,225,6.9,7.3,68,0.00,,,0.00,WUHU216HW,2013-12-28 04:55:00,
2013-12-27 22:56:00,41.1,31.4,30.05,SSW,203,6.2,6.9,68,0.00,,,0.00,WUHU216HW,2013-12-28 04:56:00,
2013-12-27 22:57:00,41.1,31.4,30.05,SSW,203,6.2,6.9,68,0.00,,,0.00,WUHU216HW,2013-12-28 04:57:00,
2013-12-27 23:00:00,41.1,31.4,30.05,SW,225,5.1,6.9,68,0.00,,,0.00,WUHU216HW,2013-12-28 05:00:00,
2013-12-27 23:01:00,41.1,31.4,30.05,SW,225,5.1,6.9,68,0.00,,,0.00,WUHU216HW,2013-12-28 05:01:00,
2013-12-27 23:06:00,41.1,31.4,30.05,SSW,203,4.0,12.5,68,0.00,,,0.00,WUHU216HW,2013-12-28 05:06:00,
2013-12-27 23:11:00,41.1,31.4,30.05,WSW,248,2.0,12.5,68,0.00,,,0.00,WUHU216HW,2013-12-28 05:11:00,
2013-12-27 23:12:00,41.1,31.4,30.05,WSW,248,2.0,12.5,68,0.00,,,0.00,WUHU216HW,2013-12-28 05:12:00,
2013-12-27 23:16:00,41.1,31.4,30.05,SW,225,5.1,10.0,68,0.00,,,0.00,WUHU216HW,2013-12-28 05:16:00,
2013-12-27 23:17:00,41.1,31.4,30.05,SSW,203,5.5,10.0,68,0.00,,,0.00,WUHU216HW,2013-12-28 05:17:00,
2013-12-27 23:21:00,41.1,31.4,30.05,SW,225,3.8,8.2,68,0.00,,,0.00,WUHU216HW,2013-12-28 05:21:00,
2013-12-27 23:22:00,41.1,31.4,30.05,SW,225,3.8,8.2,68,0.00,,,0.00,WUHU216HW,2013-12-28 05:22:00,
2013-12-27 23:26:00,41.0,31.6,30.05,SW,225,4.6,5.5,69,0.00,,,0.00,WUHU216HW,2013-12-28 05:26:00,
2013-12-27 23:27:00,41.0,31.6,30.05,SW,225,4.6,5.5,69,0.00,,,0.00,WUHU216HW,2013-12-28 05:27:00,
2013-12-27 23:28:00,40.8,31.4,30.05,WSW,248,2.9,5.1,69,0.00,,,0.00,WUHU216HW,2013-12-28 05:28:00,
2013-12-27 23:31:00,40.8,31.4,30.05,SW,225,2.9,4.6,69,0.00,,,0.00,WUHU216HW,2013-12-28 05:31:00,
2013-12-27 23:32:00,40.8,31.4,30.05,SW,225,2.9,4.6,69,0.00,,,0.00,WUHU216HW,2013-12-28 05:32:00,
2013-12-27 23:33:00,40.8,31.4,30.05,SW,225,2.9,4.6,69,0.00,,,0.00,WUHU216HW,2013-12-28 05:33:00,
2013-12-27 23:37:00,40.6,31.2,30.05,SW,225,4.6,7.3,69,0.00,,,0.00,WUHU216HW,2013-12-28 05:37:00,
2013-12-27 23:39:00,40.6,31.6,30.05,SSW,203,8.5,8.5,70,0.00,,,0.00,WUHU216HW,2013-12-28 05:39:00,
2013-12-27 23:42:00,40.6,31.7,30.05,SW,225,8.5,8.5,70,0.00,,,0.00,WUHU216HW,2013-12-28 05:42:00,
2013-12-27 23:43:00,40.6,31.6,30.05,South,180,10.2,10.2,70,0.00,,,0.00,WUHU216HW,2013-12-28 05:43:00,
2013-12-27 23:44:00,40.6,31.6,30.05,South,180,10.2,10.2,70,0.00,,,0.00,WUHU216HW,2013-12-28 05:44:00,
2013-12-27 23:47:00,40.6,31.6,30.05,SW,225,4.6,10.2,70,0.00,,,0.00,WUHU216HW,2013-12-28 05:47:00,
2013-12-27 23:48:00,40.6,31.6,30.05,SW,225,4.6,10.2,70,0.00,,,0.00,WUHU216HW,2013-12-28 05:48:00,
2013-12-27 23:49:00,40.6,31.6,30.05,SW,225,6.4,10.2,70,0.00,,,0.00,WUHU216HW,2013-12-28 05:49:00,
2013-12-27 23:52:00,40.6,31.6,30.04,SSW,203,10.2,10.2,70,0.00,,,0.00,WUHU216HW,2013-12-28 05:52:00,
2013-12-27 23:53:00,40.6,31.6,30.04,SW,225,7.8,10.2,70,0.00,,,0.00,WUHU216HW,2013-12-28 05:53:00,
2013-12-27 23:54:00,40.6,31.6,30.04,SW,225,7.8,10.2,70,0.00,,,0.00,WUHU216HW,2013-12-28 05:54:00,
2013-12-27 23:55:00,40.6,31.6,30.04,SW,225,7.8,10.2,70,0.00,,,0.00,WUHU216HW,2013-12-28 05:55:00,
2013-12-27 23:57:00,40.6,31.6,30.04,SW,225,12.7,12.7,70,0.00,,,0.00,WUHU216HW,2013-12-28 05:57:00,
2013-12-27 23:58:00,40.6,31.6,30.04,SW,225,7.6,12.7,70,0.00,,,0.00,WUHU216HW,2013-12-28 05:58:00,
2013-12-27 23:59:00,40.6,31.6,30.04,SW,225,7.6,12.7,70,0.00,,,0.00,WUHU216HW,2013-12-28 05:59:00,